     2              OBSERVATION DATA    G (GPS)             RINEX VERSION / TYPE
TRRINEXO V2.3.4 LH UCLA / SCEC 29-JUL-94 16:06              PGM / RUN BY / DATE
DONATED TO SCEC ARCHIVE BY: NATIONAL GEODETIC SURVEY        COMMENT
PROJECT NAME: NGS hpgn 1993-1994                            COMMENT
ARCHIVED BY: SOUTHERN CALIFORNIA EARTHQUAKE CENTER (SCEC)   COMMENT
ANTENNA DELTA H: DIRECT HEIGHT TO PRE-AMP BASE (DHPAB)      COMMENT
NOTE:                                                       COMMENT
PROBLEM: NONE                                               COMMENT
FOR FURTHER INFORMATION CONTACT: DAVE JACKSON               COMMENT
UCLA / GEOLOGY BLDG., 595 CIRCLE DR E. RM 3806              COMMENT
LOS ANGELES CA 90024 DJACKSON@ESS.UCLA.EDU                  COMMENT
ANTENNA ON FIXED HEIGHT KINEMATIC POLE                      COMMENT
BIT 2 OF LLI (+4) FLAGS DATA COLLECTED UNDER "AS" CONDITION COMMENT
BLACK BUTTE NCMN 1982                                       MARKER NAME
J.D. DIMARE NGS                                             OBSERVER / AGENCY
1571 TRIMBLE 4000 SSE 5.60                                  REC # / TYPE / VERS
747 TRIMBLE 4000 SSE                                        ANT # / TYPE
 -2306307.0000 -4787914.0000  3515736.0000                  APPROX POSITION XYZ
        2.2200        0.0000        0.0000                  ANTENNA: DELTA H/E/N
     1     1                                                WAVELENGTH FACT L1/2
     4    C1    L1    L2    P2                              # / TYPES OF OBSERV
    30                                                      INTERVAL
  1994     3    22    18    26    0.000000                  TIME OF FIRST OBS
                                                            END OF HEADER
 94  3 22 18 26  0.0000000  0  8 14 31 18 19 22 27 28 29
  24222815.688       97602.44315
  23117252.281      -43517.72416
  20353642.227         429.28318      -482.00419  20353644.020
  21455004.094      -35640.23117    -11058.77919  21455006.566
  24331053.906      237978.65715     43437.55019  24331058.980
  23308806.070     -102191.48916    -19448.99319  23308809.738
  23393312.625      -15415.91216     -3804.29319  23393316.375
  20995646.984      107032.10918     29084.50719  20995648.766
 94  3 22 18 26 30.0000000  0  8 14 31 18 19 22 27 28 29
  24246711.672      223171.067 5     22694.05719  24246718.895
  23106157.445     -101822.978 6    -22879.37219  23106161.676
  20353218.148       -1798.969 8     -2218.267 9  20353219.977
  21451016.344      -56595.562 7    -27387.573 9  21451018.863
  24353518.898      356033.619 5    135428.380 9  24353524.184
  23298365.484     -157055.615 6    -62200.184 9  23298369.328
  23391241.070      -26300.845 6    -12285.983 9  23391245.066
  21005539.148      159017.245 7     69592.405 9  21005540.848
 94  3 22 18 27  0.0000000  0  8 14 31 18 19 22 27 28 29
  24270252.609      346876.448 5    119087.656 9  24270260.770
  23094753.508     -161747.439 6    -69573.644 9  23094757.586
  20352508.672       -5526.278 8     -5122.630 9  20352510.395
  21446701.680      -79269.314 7    -45055.401 9  21446704.223
  24375637.531      472264.738 6    225998.027 9  24375642.781
  23287586.547     -213701.022 6   -106339.385 9  23287590.285
  23388904.984      -38578.561 6    -21852.970 9  23388908.781
  21015153.367      209539.893 8    108960.697 9  21015155.102
 94  3 22 18 27 30.0000000  0  8 14 31 18 19 22 27 28 29
  24293459.906      468830.067 5    214116.233 9  24293466.801
  23083065.633     -223171.382 6   -117436.348 9  23083069.793
  20351539.727      -10617.548 8     -9089.820 9  20351541.461
  21442088.750     -103510.254 7    -63944.412 9  21442091.234
  24397431.203      586793.513 5    315241.191 9  24397436.664
  23276490.195     -272010.167 6   -151775.006 9  23276494.121
  23386323.195      -52144.220 6    -32423.556 9  23386327.074
  21024512.547      258722.154 7    147284.528 9  21024514.422
 94  3 22 18 28  0.0000000  0  8 14 31 18 19 22 27 28 29
  24316352.609      589131.144 5    307857.158 9  24316359.961
  23071113.859     -285974.020 6   -166373.353 9  23071117.996
  20350336.305      -16943.103 8    -14018.796 9  20350337.910
  21437202.266     -129188.785 7    -83953.634 9  21437205.031
  24418926.297      699753.761 5    403262.126 9  24418931.430
  23265100.555     -331866.721 6   -198416.393 9  23265104.363
  23383518.820      -66882.630 6    -43907.992 9  23383522.441
  21033637.836      306676.796 7    184651.769 9  21033639.734
 94  3 22 18 28 30.0000000  0  7 31 18 19 22 27 28 29
  23058923.453     -350035.380 6   -216291.184 9  23058927.941
  20348920.555      -24383.050 8    -19816.134 9  20348922.277
  21432062.211     -156200.715 7   -105001.859 9  21432064.836
  24440146.078      811264.700 5    490153.715 9  24440152.465
  23253435.094     -393167.821 6   -246183.428 9  23253437.988
  23380509.813      -82693.023 6    -56227.737 9  23380513.656
  21042551.414      353516.841 7    221150.492 9  21042553.195
 94  3 22 18 29  0.0000000  0  7 31 18 19 22 27 28 29
  23046518.867     -415221.956 6   -267085.797 9  23046522.523
  20347319.758      -32796.087 8    -26371.730 9  20347321.457
  21426689.414     -184434.786 7   -127002.404 9  21426692.063
  24461114.422      921447.712 5    576010.534 9  24461120.855
  23241516.102     -455802.475 6   -294989.585 9  23241519.676
  23377320.172      -99454.970 6    -69288.975 9  23377324.215
  21051272.875      399348.108 7    256863.152 9  21051274.832
 94  3 22 18 29 30.0000000  0  7 31 18 19 22 27 28 29
  23033920.703     -481425.872 6   -318673.148 9  23033924.980
  20345554.977      -42068.656 8    -33597.086 9  20345556.570
  21421101.820     -213797.443 7   -149882.365 9  21421104.527
  24481851.195     1030420.080 5    660923.969 9  24481856.469
  23229364.227     -519660.013 6   -344748.634 9  23229367.566
  23373972.602     -117046.680 6    -82996.779 9  23373976.691
  21059822.375      444277.026 7    291872.686 9  21059824.367
 94  3 22 18 30  0.0000000  0  7 31 18 19 22 27 28 29
  23021151.125     -548528.750 6   -370960.993 9  23021155.309
  20343648.328      -52088.255 8    -41404.546 9  20343649.852
  21415318.570     -244188.381 7   -173563.575 9  21415321.312
  24502381.578     1138305.754 5    744990.646 9  24502386.676
  23217001.437     -584626.758 6   -395371.996 9  23217005.094
  23370490.414     -135346.038 6    -97256.005 9  23370494.445
  21068219.914      488405.089 7    326258.169 9  21068221.789
 94  3 22 18 30 30.0000000  0  6 31 18 19 27 28 29
  23008228.938     -616434.781 6   -423874.657 9  23008233.379
  20341617.234      -62762.364 8    -49722.016 9  20341618.910
  21409354.805     -275527.111 7   -197983.330 9  21409357.617
  23204445.859     -650608.053 6   -446785.927 9  23204449.516
  23366888.664     -154271.891 6   -112003.408 9  23366893.047
  21076480.320      531814.313 7    360083.517 9  21076482.395
 94  3 22 18 31  0.0000000  0  6 31 18 19 27 28 29
  22995171.750     -685050.860 6   -477341.619 9  22995176.133
  20339474.812      -74020.178 8    -58494.318 9  20339476.395
  21403230.102     -307715.084 8   -223064.826 9  21403232.633
  23191713.008     -717518.316 6   -498923.725 9  23191717.121
  23363188.000     -173721.094 6   -127158.624 9  23363191.656
  21084620.906      574592.068 7    393416.811 9  21084622.863
 94  3 22 18 31 30.0000000  0  6 31 18 19 27 28 29
  22981994.891     -754295.325 6   -531298.244 9  22981999.262
  20337232.781      -85802.274 8    -67675.153 9  20337234.352
  21396957.758     -340675.564 7   -248748.282 9  21396960.301
  23178815.773     -785290.734 6   -551733.344 9  23178819.676
  23359399.453     -193629.746 6   -142671.850 9  23359403.484
  21092655.875      616817.769 7    426319.936 9  21092657.855
 94  3 22 18 32  0.0000000  0  6 31 18 19 27 28 29
  22968709.594     -824110.089 6   -585699.252 9  22968714.305
  20334903.867      -98040.230 8    -77211.205 9  20334905.543
  21390548.641     -374355.289 7   -274992.185 9  21390551.137
  23165762.922     -853887.166 6   -605185.047 9  23165766.391
  23355531.031     -213961.416 6   -158514.711 9  23355534.629
  21100597.422      658550.950 7    458839.270 9  21100599.461
 94  3 22 18 32 30.0000000  0  6 31 18 19 27 28 29
  22955331.883     -894409.971 6   -640478.281 9  22955336.125
  20332500.750     -110668.275 8    -87051.224 9  20332502.238
  21384015.133     -408689.602 7   -301746.161 9  21384017.664
  23152564.680     -923240.315 6   -659226.395 9  23152568.383
  23351593.547     -234650.827 6   -174636.331 9  23351597.109
  21108460.422      699870.023 7    491035.930 9  21108462.391
 94  3 22 18 33  0.0000000  0  6 31 18 19 27 28 29
  22941871.758     -965145.897 6   -695597.097 9  22941875.555
  20330033.219     -123637.142 8    -97156.820 9  20330034.695
  21377368.125     -443619.821 7   -328964.474 9  21377370.656
  23139232.781     -993300.857 6   -713818.971 9  23139236.297
  23347601.375     -255632.169 6   -190985.427 9  23347605.160
  21116254.664      740829.417 7    522952.320 9  21116256.633
 94  3 22 18 33 30.0000000  0  6 31 18 19 27 28 29
  22928337.484    -1036268.448 6   -751017.183 9  22928341.469
  20327512.375     -136883.689 8   -107478.789 9  20327513.887
  21370614.648     -479108.905 7   -356618.272 9  21370617.121
  23125779.016    -1064002.787 6   -768911.320 9  23125782.473
  23343561.727     -276857.723 6   -207524.807 9  23343565.113
  21123987.563      781465.665 7    554616.908 9  21123989.543
 94  3 22 18 34  0.0000000  0  6 31 18 19 27 28 29
  22914738.336    -1107734.850 6   -806705.222 9  22914742.051
  20324946.008     -150370.711 8   -117988.150 9  20324947.461
  21363764.664     -515105.825 7   -384667.784 9  21363767.055
  23112214.930    -1135282.297 6   -824453.744 9  23112218.504
  23339489.742     -298257.778 6   -224200.168 9  23339493.305
  21131666.156      821816.255 7    586058.906 9  21131667.984
 94  3 22 18 34 30.0000000  0  6 31 18 19 27 28 29
  22901082.773    -1179493.512 6   -862620.991 9  22901086.582
  20322340.930     -164060.675 8   -128655.648 9  20322342.336
  21356829.742     -551549.207 8   -413065.195 9  21356832.203
  23098555.648    -1207061.702 6   -880385.703 9  23098558.602
  23335396.844     -319765.842 6   -240959.674 9  23335400.535
  21139298.852      861925.393 7    617312.758 9  21139300.762
 94  3 22 18 35  0.0000000  0  6 31 18 19 27 28 29
  22887374.492    -1251528.610 6   -918752.184 9  22887378.617
  20319703.469     -177919.015 8   -139454.349 9  20319704.922
  21349816.445     -588403.262 7   -441782.612 9  21349818.941
  23084807.672    -1279308.409 6   -936681.776 9  23084810.578
  23331291.477     -341341.536 6   -257771.889 9  23331295.203
  21146892.523      901829.904 7    648407.160 9  21146894.410
 94  3 22 18 35 30.0000000  0  6 31 18 19 27 28 29
  22873622.578    -1323793.665 6   -975062.563 9  22873626.398
  20317042.734     -191902.405 8   -150350.493 9  20317044.047
  21342733.133     -625628.423 8   -470789.211 9  21342735.547
  23070978.469    -1351979.015 6   -993308.172 9  23070981.996
  23327180.906     -362940.569 6   -274602.276 9  23327184.691
  21154459.813      941596.629 7    679394.192 9  21154461.570
 94  3 22 18 36  0.0000000  0  6 31 18 19 27 28 29
  22859835.844    -1396245.190 6  -1031518.248 9  22859839.570
  20314366.406     -205965.780 8   -161308.962 9  20314367.906
  21335586.992     -663181.934 8   -500051.668 9  21335589.430
  23057073.273    -1425052.682 6  -1050248.643 9  23057076.695
  23323072.063     -384531.902 6   -291426.674 9  23323075.555
  21162014.469      981295.627 7    710328.448 9  21162016.215
 94  3 22 18 36 30.0000000  0  6 31 18 19 27 28 29
  22846017.836    -1468860.043 6  -1088101.215 9  22846021.820
  20311685.836     -220053.689 8   -172286.550 9  20311687.488
  21328382.172     -701043.468 8   -529554.132 9  21328384.164
  23043094.422    -1498512.902 6  -1107490.330 9  23043097.715
  23318967.945     -406099.341 6   -308232.433 9  23318971.906
  21169563.516     1020966.611 7    741240.870 9  21169565.191
 94  3 22 18 37  0.0000000  0  6 31 18 19 27 28 29
  22832180.539    -1541576.348 6  -1144763.227 9  22832184.500
  20309011.539     -234107.703 8   -183237.719 9  20309012.840
  21321125.867     -739175.923 8   -559267.705 9  21321128.117
  23029046.016    -1572331.936 6  -1165011.616 9  23029049.309
  23314878.695     -427588.455 6   -324977.164 9  23314882.609
  21177119.320     1060672.120 7    772180.188 9  21177120.949
 94  3 22 18 37 30.0000000  0  6 31 18 19 27 28 29
  22818331.938    -1614350.192 6  -1201470.091 9  22818335.898
  20306346.258     -248113.424 8   -194151.263 9  20306347.453
  21313818.406     -777575.356 8   -589189.325 9  21313820.645
  23014934.719    -1646493.641 6  -1222799.921 9  23014938.258
  23310806.961     -448986.412 6   -341650.870 9  23310810.816
  21184680.086     1100404.506 7    803140.451 9  21184681.809
 94  3 22 18 38  0.0000000  0  6 31 18 19 27 28 29
  22804480.219    -1687140.644 6  -1258189.890 9  22804484.297
  20303696.953     -262035.306 8   -204999.478 9  20303698.254
  21306465.039     -816217.824 8   -619300.317 9  21306467.418
  23000763.711    -1720960.110 6  -1280825.711 9  23000767.332
  23306757.281     -470264.537 6   -358231.193 9  23306761.336
  21192244.297     1140154.030 7    834114.070 9  21192245.914
 94  3 22 18 38 30.0000000  0  6 31 18 19 27 28 29
  22790631.547    -1759915.832 6  -1314897.797 9  22790635.742
  20301069.906     -275840.437 8   -215756.721 9  20301071.266
  21299071.078     -855074.306 8   -649578.084 9  21299073.246
  22986542.859    -1795691.416 6  -1339057.854 9  22986546.445
  23302739.719     -491377.522 6   -374682.839 9  23302743.820
  21199810.133     1179911.453 7    865093.849 9  21199811.773
 94  3 22 18 39  0.0000000  0  6 31 18 19 27 28 29
  22776792.078    -1832642.962 6  -1371568.258 9  22776796.098
  20298464.719     -289530.524 8   -226424.317 9  20298465.984
  21291641.063     -894119.392 8   -680002.815 9  21291643.254
  22972275.273    -1870667.255 6  -1397480.560 9  22972278.766
  23298758.734     -512300.444 6   -390986.390 9  23298762.379
  21207378.953     1219686.559 7    896087.408 9  21207380.699
 94  3 22 18 39 30.0000000  0  6 31 18 19 27 28 29
  22762961.414    -1905321.893 6  -1428201.157 9  22762965.328
  20295884.391     -303091.423 8   -236991.246 9  20295885.621
  21284181.633     -933319.376 8   -710548.252 9  21284183.707
  22957967.039    -1945860.771 6  -1456072.868 9  22957970.543
  23294813.406     -533029.953 6   -407139.227 9  23294817.250
  21214952.758     1259487.895 7    927101.402 9  21214954.563
 94  3 22 18 40  0.0000000  0  6 31 18 19 27 28 29
  22749137.453    -1977968.474 6  -1484808.835 9  22749141.742
  20293333.203     -316496.772 8   -247436.967 9  20293334.457
  21276697.133     -972649.108 8   -741194.787 9  21276699.207
  22943615.648    -2021275.606 6  -1514837.638 9  22943618.813
  23290905.875     -553566.333 6   -423141.577 9  23290909.730
  21222538.414     1299350.604 7    958163.218 9  21222540.242
 94  3 22 18 40 30.0000000  0  6 31 18 19 27 28 29
  22735318.984    -2050582.962 6  -1541391.506 9  22735323.109
  20290813.523     -329739.717 8   -257756.146 9  20290814.789
  21269193.375    -1012082.627 8   -771922.198 9  21269195.531
  22929220.734    -2096921.455 6  -1573782.434 9  22929224.109
  23287034.602     -573910.926 6   -438994.482 9  23287038.457
  21230143.328     1339313.216 7    989302.879 9  21230145.191
 94  3 22 18 41  0.0000000  0  6 31 18 19 27 28 29
  22721510.109    -2123150.915 6  -1597937.911 9  22721514.234
  20288324.922     -342816.117 8   -267945.543 9  20288326.199
  21261673.945    -1051596.940 8   -802712.564 9  21261676.254
  22914784.430    -2172784.498 6  -1632896.460 9  22914788.039
  23283199.883     -594061.087 6   -454695.891 9  23283203.539
  21237775.180     1379419.773 7   1020554.707 9  21237777.020
 94  3 22 18 41 30.0000000  0  6 31 18 19 27 28 29
  22707712.203    -2195659.282 6  -1654437.865 9  22707716.387
  20285872.547     -355704.061 8   -277988.097 9  20285873.801
  21254139.789    -1091189.682 8   -833564.050 9  21254142.121
  22900309.297    -2248852.465 6  -1692170.169 9  22900312.836
  23279404.938     -614005.307 6   -470236.821 9  23279408.570
  21245436.383     1419680.489 7   1051926.658 9  21245438.316
 94  3 22 18 42  0.0000000  0  6 31 18 19 27 28 29
  22693929.586    -2268087.406 6  -1710875.279 9  22693933.418
  20283457.164     -368397.621 8   -287879.181 9  20283458.465
  21246590.063    -1130865.038 8   -864479.907 9  21246592.148
  22885795.633    -2325119.386 6  -1751598.899 9  22885799.242
  23275653.484     -633718.982 6   -485598.105 9  23275657.164
  21253126.531     1460090.782 7   1083415.157 9  21253128.324
 94  3 22 18 42 30.0000000  0  6 31 18 19 27 28 29
  22680166.531    -2340412.872 6  -1767232.689 9  22680170.375
  20281075.242     -380914.763 8   -297632.796 9  20281076.531
  21239024.461    -1170622.151 8   -895459.472 9  21239026.582
  22871250.477    -2401555.475 6  -1811159.446 9  22871254.402
  23271951.586     -653173.248 6   -500757.262 9  23271955.219
  21260842.930     1500641.080 7   1115012.758 9  21260844.734
 94  3 22 18 43  0.0000000  0  6 31 18 19 27 28 29
  22666428.688    -2412601.925 6  -1823483.793 9  22666432.602
  20278731.406     -393230.735 8   -307229.654 9  20278732.648
  21231444.742    -1210453.604 8   -926496.970 9  21231446.863
  22856678.836    -2478131.827 6  -1870829.299 9  22856682.270
  23268304.797     -672335.314 6   -515688.729 9  23268308.266
  21268587.977     1541342.122 7   1146727.820 9  21268589.992
 94  3 22 18 43 30.0000000  0  6 31 18 19 27 28 29
  22652718.039    -2484655.682 6  -1879629.454 9  22652722.035
  20276427.625     -405337.228 8   -316663.291 9  20276428.984
  21223848.953    -1250368.734 8   -957599.664 9  21223851.238
  22842079.602    -2554849.308 6  -1930609.105 9  22842083.480
  23264715.117     -691200.457 6   -530388.836 9  23264718.492
  21276358.211     1582173.241 7   1178544.236 9  21276360.332
 94  3 22 18 44  0.0000000  0  6 31 18 19 27 28 29
  22639034.164    -2556561.671 6  -1935659.969 9  22639038.125
  20274166.945     -417217.836 8   -325920.907 9  20274168.293
  21216241.688    -1290345.036 8   -988750.018 9  21216244.020
  22827455.547    -2631699.144 6  -1990492.047 9  22827459.016
  23261182.109     -709766.625 6   -544855.966 9  23261185.508
  21284157.562     1623158.097 7   1210480.454 9  21284159.461
 94  3 22 18 44 30.0000000  0  6 31 18 19 27 28 29
  22625385.195    -2628291.222 6  -1991552.998 9  22625389.133
  20271954.641     -428842.055 8   -334978.745 9  20271955.988
  21208626.805    -1330362.019 8  -1019932.080 9  21208629.301
  22812808.938    -2708668.164 6  -2050467.875 9  22812812.594
  23257708.688     -728020.886 6   -559080.057 9  23257712.039
  21291991.805     1664328.340 7   1242561.126 9  21291993.785
 94  3 22 18 45  0.0000000  0  6 31 18 19 27 28 29
  22611767.328    -2699850.914 6  -2047313.670 9  22611771.242
  20269792.508     -440204.363 8   -343832.499 9  20269793.926
  21201001.680    -1370431.061 8  -1051154.703 9  21201004.035
  22798136.414    -2785773.089 6  -2110549.597 9  22798139.672
  23254290.914     -745980.384 6   -573074.454 9  23254294.641
  21299861.516     1705682.938 7   1274785.448 9  21299863.496
 94  3 22 18 45 30.0000000  0  6 31 18 19 27 28 29
  22598182.695    -2771239.227 6  -2102940.803 9  22598186.316
  20267681.938     -451296.565 8   -352475.775 9  20267683.227
  21193368.078    -1410546.461 8  -1082413.449 9  21193370.469
  22783439.953    -2863002.227 6  -2170728.116 9  22783443.492
  23250931.609     -763632.856 6   -586829.625 9  23250935.078
  21307766.039     1747222.700 7   1307154.056 9  21307768.148
 94  3 22 18 46  0.0000000  0  6 31 18 19 27 28 29
  22584635.820    -2842426.258 6  -2158411.099 9  22584639.160
  20265625.609     -462103.111 8   -360896.467 9  20265626.910
  21185727.047    -1450700.500 8  -1113702.297 9  21185729.355
  22768722.688    -2940342.887 6  -2230993.522 9  22768726.355
  23247634.445     -780959.819 6   -600331.137 9  23247637.668
  21315711.891     1788977.999 7   1339690.611 9  21315713.871
 94  3 22 18 46 30.0000000  0  6 31 18 19 27 28 29
  22571129.930    -2913402.444 6  -2213717.115 9  22571133.398
  20263624.508     -472619.963 8   -369091.422 9  20263626.078
  21178077.156    -1490900.257 8  -1145026.771 9  21178079.547
  22753987.117    -3017777.559 6  -2291332.176 9  22753990.727
  23244403.242     -797940.618 6   -613562.923 9  23244406.219
  21323699.070     1830948.571 7   1372394.908 9  21323700.852
 94  3 22 18 47  0.0000000  0  6 31 18 19 27 28 29
  22557663.891    -2984166.043 6  -2268857.484 9  22557667.477
  20261678.711     -482844.355 8   -377058.492 9  20261680.176
  21170420.094    -1531139.537 8  -1176382.036 9  21170422.543
  22739236.867    -3095290.969 6  -2351732.193 9  22739240.066
  23241235.984     -814584.929 6   -626532.494 9  23241238.984
  21331728.063     1873141.482 7   1405272.456 9  21331729.926
 94  3 22 18 47 30.0000000  0  6 31 18 19 27 28 29
  22544243.070    -3054690.383 6  -2323811.436 9  22544246.258
  20259790.805     -492764.368 8   -384788.378 9  20259792.387
  21162756.641    -1571412.333 8  -1207763.417 9  21162759.090
  22724472.570    -3172875.941 6  -2412187.971 9  22724476.039
  23238134.703     -830881.135 6   -639230.829 9  23238137.891
  21339801.391     1915567.838 7   1438331.909 9  21339803.254
 94  3 22 18 48  0.0000000  0  6 31 18 19 27 28 29
  22530874.117    -3124947.036 6  -2378556.807 9  22530877.410
  20257962.586     -502373.267 8   -392275.840 9  20257964.027
  21155090.430    -1611697.907 8  -1239154.755 9  21155092.809
  22709696.930    -3250524.512 6  -2472693.323 9  22709700.293
  23235101.938     -846818.099 6   -651649.232 9  23235105.477
  21347923.813     1958251.454 7   1471591.823 9  21347925.699
 94  3 22 18 48 30.0000000  0  6 31 18 19 27 28 29
  22517557.469    -3194925.907 6  -2433085.730 9  22517560.586
  20256194.953     -511660.647 8   -399512.766 9  20256196.500
  21147428.992    -1651958.547 8  -1270526.669 9  21147431.406
  22694910.664    -3328226.741 6  -2533240.474 9  22694913.852
  23232140.414     -862380.946 6   -663776.127 9  23232143.988
  21356094.563     2001189.333 7   1505049.859 9  21356096.555
 94  3 22 18 49  0.0000000  0  6 31 18 19 27 28 29
  22504292.289    -3264634.431 6  -2487404.006 9  22504295.523
  20254486.609     -520638.562 8   -406508.548 9  20254488.227
  21139773.750    -1692186.281 8  -1301872.943 9  21139776.246
  22680110.898    -3405999.096 6  -2593842.273 9  22680114.297
  23229249.484     -877572.348 6   -675613.578 9  23229253.293
  21364310.734     2044365.860 7   1538693.861 9  21364312.797
 94  3 22 18 49 30.0000000  0  6 31 18 19 27 28 29
  22491076.219    -3334083.973 6  -2541520.484 9  22491079.805
  20252835.070     -529317.205 8   -413271.137 9  20252836.676
  21132123.969    -1732387.573 8  -1333198.614 9  21132126.324
  22665295.742    -3483852.732 6  -2654507.415 9  22665298.906
  23226433.211     -892371.973 6   -687145.754 9  23226437.137
  21372569.617     2087764.169 7   1572510.670 9  21372571.656
 94  3 22 18 50  0.0000000  0  6 31 18 19 27 28 29
  22477908.008    -3403284.237 6  -2595442.730 9  22477911.512
  20251243.141     -537683.861 8   -419790.611 9  20251244.770
  21124483.984    -1772535.480 8  -1364482.682 9  21124486.410
  22650467.914    -3561775.055 6  -2715226.078 9  22650470.973
  23223692.398     -906776.285 6   -698369.896 9  23223696.289
  21380870.789     2131389.204 7   1606504.156 9  21380873.027
 94  3 22 18 50 30.0000000  0  6 31 18 19 27 28 29
  22464786.078    -3472238.899 6  -2649173.610 9  22464789.781
  20249711.586     -545731.480 8   -426061.496 9  20249713.180
  21116853.789    -1812630.576 7  -1395725.596 9  21116856.484
  22635630.188    -3639747.250 6  -2775983.610 9  22635633.363
  23221024.766     -920793.237 6   -709292.199 9  23221029.031
  21389214.977     2175238.178 7   1640672.133 9  21389217.039
 94  3 22 18 51  0.0000000  0  6 31 18 19 27 28 29
  22451713.563    -3540934.642 6  -2702702.730 9  22451717.500
  20248242.250     -553453.727 8   -432078.840 9  20248243.773
  21109230.867    -1852688.842 7  -1426939.811 9  21109233.668
  22620786.586    -3717752.254 6  -2836766.694 9  22620789.680
  23218431.766     -934418.714 6   -719909.458 9  23218435.926
  21397606.352     2219334.028 7   1675032.489 9  21397608.461
 94  3 22 18 51 30.0000000  0  6 31 18 19 27 28 29
  22438692.203    -3609360.777 6  -2756021.774 9  22438696.082
  20246836.273     -560842.049 8   -437835.987 9  20246837.832
  21101615.367    -1892709.835 7  -1458124.986 9  21101618.074
  22605935.844    -3795791.911 6  -2897576.802 9  22605939.195
  23215912.578     -947658.311 6   -730226.044 9  23215916.773
  21406047.906     2263695.105 7   1709599.514 9  21406050.039
 94  3 22 18 52  0.0000000  0  6 31 18 19 27 28 29
  22425730.141    -3677478.371 6  -2809100.399 9  22425733.750
  20245497.188     -567878.579 8   -443319.012 9  20245498.688
  21094010.469    -1932673.847 7  -1489265.764 9  21094012.941
  22591082.539    -3873847.173 6  -2958399.059 9  22591086.160
  23213468.883     -960499.518 6   -740232.195 9  23213473.195
  21414544.516     2308344.604 7   1744391.285 9  21414546.637
 94  3 22 18 52 30.0000000  0  6 31 18 19 27 28 29
  22412830.164    -3745268.739 6  -2861924.043 9  22412833.785
  20244223.984     -574569.511 8   -448532.742 9  20244225.496
  21086413.828    -1972594.431 8  -1520372.702 9  21086416.430
  22576226.367    -3951915.035 6  -3019231.128 9  22576229.836
  23211106.492     -972914.794 6   -749906.453 9  23211110.383
  21423096.555     2353284.692 7   1779409.489 9  21423098.816
 94  3 22 18 53  0.0000000  0  6 31 18 19 27 28 29
  22399995.125    -3812718.403 6  -2914482.208 9  22399998.570
  20243018.961     -580903.274 8   -453468.156 9  20243020.543
  21078826.969    -2012462.978 7  -1551439.101 9  21078829.371
  22561366.656    -4030004.254 6  -3080079.843 9  22561370.008
  23208828.844     -984882.322 6   -759231.820 9  23208833.238
  21431704.617     2398521.657 7   1814659.023 9  21431706.914
 94  3 22 18 53 30.0000000  0  6 31 18 19 27 28 29
  22387225.805    -3879820.258 6  -2966769.354 9  22387229.051
  20241883.930     -586866.240 8   -458114.630 9  20241885.547
  21071251.414    -2052273.843 8  -1582460.547 9  21071253.934
  22546501.813    -4108119.886 6  -3140949.149 9  22546505.105
  23206639.227     -996388.457 6   -768197.646 9  23206643.492
  21440368.141     2444047.533 7   1850133.680 9  21440370.484
 94  3 22 18 54  0.0000000  0  6 31 18 19 27 28 29
  22374523.758    -3946570.562 7  -3018782.573 9  22374527.016
  20240819.273     -592462.300 8   -462475.218 9  20240820.809
  21063685.570    -2092032.640 8  -1613441.415 9  21063687.926
  22531635.828    -4186241.315 6  -3201822.970 9  22531638.992
  23204537.000    -1007434.873 6   -776805.257 9  23204541.090
  21449084.750     2489854.392 7   1885827.282 9  21449087.023
 94  3 22 18 54 30.0000000  0  6 31 18 19 27 28 29
  22361886.641    -4012979.514 6  -3070529.797 9  22361889.887
  20239828.203     -597669.674 8   -466532.929 9  20239829.902
  21056129.773    -2131737.603 7  -1644380.338 9  21056132.234
  22516769.406    -4264364.268 6  -3262697.983 9  22516772.441
  23202521.891    -1018025.867 6   -785057.983 9  23202526.098
  21457856.063     2535947.485 7   1921743.921 9  21457858.254
 94  3 22 18 55  0.0000000  0  6 31 18 19 27 28 29
  22349315.563    -4079040.371 6  -3122005.774 9  22349319.031
  20238916.273     -602462.195 8   -470267.378 9  20238917.926
  21048587.492    -2171373.557 8  -1675265.494 9  21048589.977
  22501904.320    -4342481.517 6  -3323568.554 9  22501907.332
  23200590.195    -1028179.838 6   -792970.180 9  23200594.508
  21466682.641     2582330.888 7   1957886.771 9  21466684.926
 94  3 22 18 55 30.0000000  0  6 31 18 19 27 28 29
  22336814.219    -4144735.384 6  -3173196.679 9  22336817.863
  20238085.063     -606831.078 8   -473671.721 9  20238086.656
  21041061.273    -2210923.830 8  -1706083.890 9  21041063.840
  22487043.914    -4420573.885 6  -3384419.746 9  22487046.973
  23198741.219    -1037898.683 6   -800543.314 9  23198745.320
  21475568.180     2629024.714 7   1994271.508 9  21475570.406
 94  3 22 18 56  0.0000000  0  6 31 18 19 27 28 29
  22324381.789    -4210068.580 6  -3224105.650 9  22324385.445
  20237333.133     -610781.532 8   -476750.021 9  20237334.727
  21033551.313    -2250390.639 8  -1736837.247 9  21033553.715
  22472186.164    -4498649.636 6  -3445257.974 9  22472189.680
  23196969.977    -1047202.992 6   -807793.433 9  23196974.031
  21484510.586     2676016.702 7   2030888.576 9  21484512.895
 94  3 22 18 56 30.0000000  0  6 31 18 19 27 28 29
  22312018.156    -4275040.112 6  -3274732.794 9  22312021.801
  20236661.211     -614313.503 8   -479502.234 9  20236662.734
  21026057.414    -2289771.010 8  -1767523.249 9  21026059.828
  22457328.438    -4576725.512 6  -3506096.285 9  22457331.813
  23195279.016    -1056090.173 6   -814718.533 9  23195283.188
  21493508.438     2723300.527 7   2067733.053 9  21493510.828
 94  3 22 18 57  0.0000000  0  6 31 18 19 27 28 29
  22299726.711    -4339631.427 6  -3325063.662 9  22299730.355
  20236064.328     -617450.337 8   -481946.545 9  20236065.828
  21018580.508    -2329061.123 8  -1798138.920 9  21018582.687
  22442470.234    -4654808.397 6  -3566940.065 9  22442473.551
  23193666.789    -1064562.811 6   -821320.591 9  23193670.762
  21502563.336     2770883.927 7   2104810.961 9  21502565.785
 94  3 22 18 57 30.0000000  0  6 31 18 19 27 28 29
  22287507.688    -4403842.080 6  -3375097.907 9  22287511.344
  20235541.258     -620198.839 8   -484088.261 9  20235542.676
  21011120.805    -2368261.651 8  -1828684.789 9  21011123.172
  22427610.297    -4732898.129 6  -3627789.177 9  22427613.508
  23192138.781    -1072594.883 6   -827579.375 9  23192142.648
  21511677.188     2818777.811 7   2142130.806 9  21511679.355
 94  3 22 18 58  0.0000000  0  6 31 18 19 27 28 29
  22275360.805    -4467673.628 6  -3424836.728 9  22275364.637
  20235092.984     -622555.115 8   -485924.342 9  20235094.332
  21003679.102    -2407369.247 8  -1859158.235 9  21003681.527
  22412750.266    -4810987.839 6  -3688638.277 9  22412753.676
  23190697.836    -1080167.279 6   -833479.964 9  23190701.703
  21520848.898     2866974.234 7   2179686.399 9  21520851.172
 94  3 22 18 58 30.0000000  0  6 31 18 19 27 28 29
  22263285.680    -4531129.603 7  -3474282.905 9  22263289.078
  20234718.898     -624520.787 8   -487456.057 9  20234720.328
  20996256.203    -2446378.430 8  -1889555.002 9  20996258.617
  22397890.961    -4889073.753 6  -3749484.415 9  22397894.172
  23189346.281    -1087268.360 6   -839013.292 9  23189350.031
  21530081.328     2915490.683 7   2217491.359 9  21530083.695
 94  3 22 18 59  0.0000000  0  6 31 18 19 27 28 29
  22251280.813    -4594215.638 7  -3523440.807 9  22251284.246
  20234419.648     -626092.451 8   -488680.750 9  20234421.102
  20988851.461    -2485289.311 8  -1919875.173 9  20988853.934
  22383033.367    -4967151.553 6  -3810324.219 9  22383036.730
  23188085.578    -1093892.678 6   -844175.124 9  23188089.164
  21539375.188     2964331.149 7   2255548.803 9  21539377.602
 94  3 22 18 59 30.0000000  0  6 31 18 19 27 28 29
  22239345.805    -4656935.180 7  -3572313.122 9  22239349.379
  20234199.938     -627247.773 8   -489581.022 9  20234201.555
  20981467.336    -2524093.823 8  -1950112.470 9  20981469.586
  22368180.422    -5045204.632 7  -3871144.761 9  22368183.422
  23186917.594    -1100032.828 6   -848959.675 9  23186920.945
  21548729.023     3013484.963 7   2293850.413 9  21548731.438
 94  3 22 19  0  0.0000000  0  6 31 18 19 27 28 29
  22227481.727    -4719282.584 7  -3620895.461 9  22227485.324
  20234059.945     -627984.051 8   -490154.766 9  20234061.492
  20974103.297    -2562791.160 8  -1980266.249 9  20974105.570
  22353332.320    -5123231.780 7  -3931945.102 9  22353335.109
  23185837.609    -1105709.458 6   -853383.045 9  23185841.254
  21558140.570     3062942.245 7   2332388.496 9  21558143.020
 94  3 22 19  0 30.0000000  0  6 31 18 19 27 28 29
  22215692.867    -4781231.231 7  -3669167.082 9  22215696.395
  20234003.961     -628279.765 8   -490385.210 9  20234005.426
  20966761.305    -2601374.179 8  -2010330.950 9  20966763.555
  22338491.953    -5201219.950 7  -3992715.064 9  22338494.988
  23184848.055    -1110909.120 6   -857434.747 9  23184851.711
  21567613.742     3112722.813 7   2371178.474 9  21567616.285
 94  3 22 19  1  0.0000000  0  6 31 18 19 27 28 29
  22203981.297    -4842777.107 7  -3717124.854 9  22203984.848
  20234030.914     -628135.948 8   -490273.164 9  20234032.367
  20959440.109    -2639847.272 8  -2040309.982 9  20959442.430
  22323658.000    -5279169.337 6  -4053454.809 9  22323661.117
  23183947.703    -1115637.755 6   -861119.420 9  23183951.359
  21577144.461     3162807.568 7   2410205.485 9  21577147.004
 94  3 22 19  1 30.0000000  0  6 31 18 19 27 28 29
  22192351.227    -4903893.822 7  -3764748.212 9  22192354.871
  20234144.250     -627542.769 8   -489810.969 9  20234145.680
  20952139.117    -2678213.490 8  -2070205.743 9  20952141.484
  22308833.680    -5357071.781 6  -4114157.983 9  22308836.949
  23183139.969    -1119884.866 6   -864428.880 9  23183143.426
  21586735.133     3213206.770 7   2449477.520 9  21586737.641
 94  3 22 19  2  0.0000000  0  6 31 18 19 27 28 29
  22180801.617    -4964585.683 7  -3812040.516 9  22180805.074
  20234338.828     -626518.444 8   -489012.813 9  20234340.328
  20944853.359    -2716501.177 8  -2100040.316 9  20944855.750
  22294014.422    -5434947.571 6  -4174840.375 9  22294017.480
  23182421.891    -1123657.210 6   -867368.381 9  23182425.465
  21596382.703     3263904.310 7   2488982.024 9  21596385.152
 94  3 22 19  2 30.0000000  0  6 31 18 19 27 28 29
  22169335.617    -5024842.165 7  -3858993.578 9  22169339.027
  20234615.195     -625066.327 8   -487881.315 9  20234616.637
  20937584.539    -2754699.099 8  -2129804.943 9  20937586.883
  22279202.891    -5512784.519 7  -4235492.505 9  22279205.703
  23181799.539    -1126927.548 6   -869916.716 9  23181803.031
  21606089.578     3314914.329 7   2528730.015 9  21606092.227
 94  3 22 19  3  0.0000000  0  6 31 18 19 27 28 29
  22157950.711    -5084669.649 7  -3905612.351 9  22157953.910
  20234971.641     -623193.858 8   -486422.268 9  20234973.152
  20930333.906    -2792802.687 8  -2159496.059 9  20930336.145
  22264397.430    -5590587.788 7  -4296118.399 9  22264400.465
  23181272.672    -1129697.309 6   -872074.990 9  23181276.176
  21615856.273     3366238.035 7   2568722.439 9  21615858.723
 94  3 22 19  3 30.0000000  0  7  2 31 18 19 27 28 29
  24348864.742      -17816.51715
  22146645.750    -5144074.246 7  -3951901.615 9  22146649.195
  20235407.117     -620905.118 8   -484638.853 9  20235408.617
  20923098.719    -2830823.987 8  -2189123.046 9  20923100.945
  22249598.500    -5668356.382 7  -4356717.270 9  22249601.477
  23180839.938    -1131970.629 6   -873846.427 9  23180843.266
  21625681.648     3417872.763 7   2608957.210 9  21625684.262
 94  3 22 19  4  0.0000000  0  7  2 31 18 19 27 28 29
  24328527.023     -124689.065 5
  22135422.898    -5203051.566 7  -3997857.927 9  22135426.285
  20235921.961     -618199.310 8   -482530.451 9  20235923.543
  20915882.758    -2868742.813 8  -2218670.187 9  20915885.078
  22234806.937    -5746085.727 7  -4417285.555 9  22234810.242
  23180501.375    -1133750.962 6   -875233.719 9  23180504.832
  21635567.133     3469820.089 7   2649435.569 9  21635569.793
 94  3 22 19  4 30.0000000  0  7  2 31 18 19 27 28 29
  24308208.766     -231462.308 5    -52681.48119  24308215.363
  22124283.305    -5261590.125 7  -4043472.358 9  22124286.621
  20236516.531     -615076.310 8   -480096.964 9  20236518.066
  20908688.242    -2906550.283 8  -2248130.553 9  20908690.516
  22220023.547    -5823773.770 7  -4477821.671 9  22220026.723
  23180255.195    -1135042.319 6   -876239.985 9  23180258.699
  21645515.742     3522098.186 7   2690171.672 9  21645518.438
 94  3 22 19  5  0.0000000  0  7  2 31 18 19 27 28 29
  24287912.133     -338119.059 5   -135790.491 9  24287919.813
  22113231.836    -5319666.682 7  -4088726.788 9  22113235.199
  20237194.273     -611513.760 8   -477320.971 9  20237195.855
  20901515.766    -2944242.180 8  -2277500.863 9  20901518.063
  22205250.695    -5901404.083 7  -4538312.800 9  22205253.930
  23180102.016    -1135849.230 6   -876868.764 9  23180105.344
  21655527.148     3574708.809 7   2731166.887 9  21655529.797
 94  3 22 19  5 30.0000000  0  7  2 31 18 19 27 28 29
  24267641.211     -444645.307 5   -218797.810 9  24267648.082
  22102269.570    -5377273.196 7  -4133614.953 9  22102273.109
  20237957.727     -607501.985 8   -474194.937 9  20237959.285
  20894365.336    -2981817.056 8  -2306779.986 9  20894367.691
  22190491.281    -5978965.224 7  -4598750.032 9  22190494.680
  23180039.766    -1136173.907 6   -877121.778 9  23180043.434
  21665601.633     3627650.171 7   2772419.819 9  21665604.223
 94  3 22 19  6  0.0000000  0  7  2 31 18 19 27 28 29
  24247394.586     -551043.094 5   -301705.048 9  24247400.926
  22091396.031    -5434413.947 7  -4178140.185 9  22091399.535
  20238805.687     -603046.138 8   -470722.875 9  20238807.340
  20887239.898    -3019262.915 8  -2335958.578 9  20887242.043
  22175742.688    -6056470.227 7  -4659143.520 9  22175745.676
  23180069.375    -1136022.541 6   -877003.849 9  23180072.762
  21675738.375     3680919.475 7   2813928.289 9  21675741.070
 94  3 22 19  6 30.0000000  0  7  2 31 18 19 27 28 29
  24227174.484     -657300.713 5   -384503.054 9  24227181.402
  22080608.500    -5491104.748 7  -4222314.807 9  22080611.734
  20239740.172     -598135.387 8   -466896.343 9  20239741.824
  20880139.484    -3056572.983 8  -2365031.370 9  20880141.570
  22161005.992    -6133910.746 7  -4719486.753 9  22161009.004
  23180190.742    -1135382.217 6   -876504.900 9  23180194.785
  21685936.883     3734513.546 7   2855689.828 9  21685939.508
 94  3 22 19  7  0.0000000  0  7  2 31 18 19 27 28 29
  24206980.961     -763414.952 5   -467189.407 9  24206988.359
  22069902.953    -5547361.873 7  -4266151.498 9  22069906.223
  20240762.828     -592761.284 8   -462708.762 9  20240764.551
  20873067.477    -3093739.054 8  -2393991.947 9  20873069.645
  22146283.820    -6211277.377 7  -4779772.430 9  22146286.891
  23180407.023    -1134243.815 6   -875617.856 9  23180410.645
  21696195.781     3788424.212 7   2897698.059 9  21696198.523
 94  3 22 19  7 30.0000000  0  7  2 31 18 19 27 28 29
  24186813.180     -869398.017 5   -549773.519 9  24186819.953
  22059279.375    -5603187.594 7  -4309652.030 9  22059282.539
  20241874.328     -586920.983 8   -458157.910 9  20241876.016
  20866025.227    -3130747.617 8  -2422829.789 9  20866027.383
  22131572.609    -6288584.996 7  -4840012.107 9  22131575.656
  23180720.664    -1132598.686 6   -874335.951 9  23180724.332
  21706516.250     3842656.426 7   2939956.855 9  21706519.027
 94  3 22 19  8  0.0000000  0  7  2 31 18 19 27 28 29
  24166665.758     -975272.101 5   -632272.752 9  24166672.711
  22048740.133    -5658573.958 7  -4352810.200 9  22048743.391
  20243072.016     -580625.592 8   -453252.441 9  20243073.820
  20859010.773    -3167606.471 8  -2451550.972 9  20859012.965
  22116868.484    -6365855.309 7  -4900222.721 9  22116871.695
  23181130.148    -1130444.251 6   -872657.189 9  23181133.734
  21716896.688     3897206.994 7   2982463.710 9  21716899.500
 94  3 22 19  8 30.0000000  0  7  2 31 18 19 27 28 29
  24146540.859    -1081031.534 5   -714682.598 9  24146547.340
  22038289.859    -5713489.223 7  -4395601.287 9  22038293.328
  20244357.430     -573871.792 8   -447989.773 9  20244359.328
  20852024.758    -3204319.389 8  -2480158.447 9  20852026.984
  22102173.664    -6443077.470 7  -4960395.814 9  22102176.816
  23181640.172    -1127766.826 6   -870570.901 9  23181643.535
  21727341.242     3952092.363 7   3025231.450 9  21727344.137
 94  3 22 19  9  0.0000000  0  7  2 31 18 19 27 28 29
  24126439.906    -1186661.504 5   -796991.589 9  24126446.211
  22027934.133    -5767908.940 7  -4438006.235 9  22027937.262
  20245728.664     -566665.835 8   -442374.776 9  20245730.598
  20845065.164    -3240891.329 8  -2508656.062 9  20845067.414
  22087488.688    -6520247.601 7  -5020528.372 9  22087491.746
  23182246.523    -1124578.479 6   -868086.484 9  23182250.109
  21737850.297     4007318.069 7   3068264.396 9  21737852.980
 94  3 22 19  9 30.0000000  0  7  2 31 18 19 27 28 29
  24106366.883    -1292145.500 5   -879186.877 9  24106372.883
  22017675.547    -5821817.185 7  -4480012.636 9  22017678.652
  20247186.297     -559005.695 8   -436405.873 9  20247188.195
  20838133.805    -3277316.496 8  -2537039.313 9  20838136.219
  22072811.648    -6597374.565 7  -5080627.289 9  22072814.848
  23182948.891    -1120889.138 6   -865211.696 9  23182952.441
  21748423.617     4062879.227 7   3111558.722 9  21748426.430
 94  3 22 19  9 59.9990000  0  7  2 31 18 19 27 28 29
  24086325.948    -1397461.071 5   -961250.902 9  24086332.593
  22007513.081    -5875219.680 7  -4521624.941 9  22007516.503
  20248728.128     -550904.008 8   -430092.906 9  20248730.050
  20831228.823    -3313602.996 8  -2565314.511 9  20831231.085
  22058146.979    -6674440.207 7  -5140678.420 9  22058149.815
  23183744.948    -1116705.892 6   -861952.030 9  23183748.663
  21759058.878     4118767.932 7   3155108.282 9  21759061.679
 94  3 22 19 10 29.9990000  0  7  2 31 18 19 27 28 29
  24066317.839    -1502602.477 5  -1043179.203 9  24066324.980
  21997443.620    -5928136.722 7  -4562858.978 9  21997446.749
  20250355.183     -542353.258 8   -423430.020 9  20250357.210
  20824350.948    -3349745.890 8  -2593477.810 9  20824353.304
  22043497.245    -6751422.801 7  -5200664.840 9  22043500.128
  23184632.159    -1112042.174 6   -858317.994 9  23184635.288
  21769754.542     4174974.229 7   3198905.315 9  21769757.062
 94  3 22 19 10 59.9990000  0  7  2 31 18 19 27 28 29
  24046342.964    -1607570.334 5  -1124972.305 9  24046349.929
  21987462.479    -5980588.576 7  -4603730.521 9  21987465.620
  20252069.698     -533344.247 8   -416410.049 9  20252071.772
  20817499.534    -3385749.736 8  -2621532.750 9  20817501.972
  22028864.222    -6828321.280 7  -5260585.701 9  22028867.304
  23185609.604    -1106905.863 6   -854315.686 9  23185613.003
  21780507.940     4231484.608 7   3242939.292 9  21780510.319
 94  3 22 19 11 29.9990000  0  7  2 31 18 19 27 28 29
  24026396.925    -1712390.374 5  -1206650.197 9  24026403.913
  21977569.300    -6032576.515 7  -4644240.580 9  21977572.464
  20253872.159     -523872.042 8   -409029.149 9  20253874.339
  20810672.604    -3421626.705 8  -2649488.826 9  20810674.866
  22014245.089    -6905145.399 7  -5320448.624 9  22014247.925
  23186680.386    -1101280.294 6   -849932.156 9  23186684.112
  21791320.878     4288304.862 7   3287214.730 9  21791323.374
 94  3 22 19 11 59.9990000  0  7  2 31 18 19 27 28 29
  24006473.183    -1817087.313 5  -1288232.185 9  24006480.112
  21967763.214    -6084106.939 7  -4684394.136 9  21967766.401
  20255760.808     -513947.613 8   -401295.869 9  20255763.011
  20803865.925    -3457395.560 8  -2677360.663 9  20803868.257
  21999640.667    -6981891.019 7  -5380250.381 9  21999643.772
  23187845.409    -1095156.649 6   -845160.509 9  23187849.007
  21802195.112     4345451.579 7   3331744.549 9  21802197.749
 94  3 22 19 12 29.9990000  0  7  2 31 18 19 27 28 29
  23986572.753    -1921666.538 5  -1369722.445 9  23986579.612
  21958045.792    -6135174.158 7  -4724186.753 9  21958049.108
  20257738.401     -503555.254 8   -393197.964 9  20257740.663
  20797079.261    -3493060.078 8  -2705151.199 9  20797081.534
  21985048.823    -7058572.783 7  -5440002.373 9  21985051.858
  23189107.308    -1088526.659 6   -839994.319 9  23189110.894
  21813133.526     4402929.654 7   3376532.572 9  21813136.421
 94  3 22 19 12 59.9990000  0  7  2 31 18 19 27 28 29
  23966697.769    -2026110.557 5  -1451107.338 9  23966704.804
  21948421.284    -6185750.615 7  -4763596.949 9  21948424.272
  20259808.003     -492678.822 8   -384722.861 9  20259810.253
  20790315.339    -3528605.073 8  -2732848.609 9  20790317.776
  21970467.628    -7135194.756 7  -5499707.784 9  21970470.757
  23190470.323    -1081363.608 6   -834412.752 9  23190473.733
  21824140.769     4460775.592 7   3421607.227 9  21824143.886
 94  3 22 19 13 29.9990000  0  7  2 31 18 19 27 28 29
  23946850.558    -2130406.405 5  -1532376.765 9  23946856.616
  21938893.737    -6235817.800 7  -4802610.316 9  21938896.855
  20261969.300     -481321.508 8   -375873.047 9  20261971.585
  20783577.862    -3564009.766 8  -2760436.679 9  20783580.347
  21955901.612    -7211742.133 7  -5559355.061 9  21955904.659
  23191937.378    -1073654.486 6   -828405.670 9  23191940.905
  21835218.878     4518990.037 7   3466969.042 9  21835221.866
 94  3 22 19 13 59.9990000  0  7  2 31 18 19 27 28 29
  23927037.573    -2234527.421 5  -1613509.969 9  23927044.503
  21929464.565    -6285371.347 7  -4841223.451 9  21929467.425
  20264222.620     -469480.219 8   -366646.112 9  20264224.952
  20776870.940    -3599254.929 8  -2787900.441 9  20776873.390
  21941350.917    -7288204.342 7  -5618935.982 9  21941353.776
  23193505.222    -1065413.540 6   -821984.194 9  23193508.714
  21846364.276     4577559.696 7   3512607.644 9  21846367.358
 94  3 22 19 14 29.9990000  0  7  2 31 18 19 27 28 29
  23907259.573    -2338459.463 5  -1694495.863 9  23907266.562
  21920134.581    -6334397.551 7  -4879425.666 9  21920137.616
  20266569.128     -457149.721 8   -357037.975 9  20266571.448
  20770196.753    -3634329.001 8  -2815230.883 9  20770199.108
  21926817.112    -7364579.862 7  -5678449.348 9  21926819.913
  23195174.190    -1056645.480 6   -815151.969 9  23195177.812
  21857572.159     4636458.320 7   3558502.581 9  21857575.112
 94  3 22 19 14 59.9990000  0  7  2 31 18 19 27 28 29
  23887516.065    -2442213.894 5  -1775343.397 9  23887523.124
  21910905.675    -6382895.552 7  -4917216.296 9  21910908.980
  20269005.175     -444348.287 8   -347062.872 9  20269007.577
  20763555.948    -3669226.102 7  -2842423.430 9  20763558.304
  21912302.753    -7440854.001 7  -5737883.721 9  21912305.812
  23196940.581    -1047362.599 6   -807918.595 9  23196944.519
  21868841.698     4695678.495 7   3604648.063 9  21868844.722
 94  3 22 19 15 29.9990000  0  7  2 31 18 19 27 28 29
  23867805.042    -2545794.514 5  -1856055.445 9  23867811.276
  21901776.987    -6430867.897 7  -4954597.321 9  21901780.222
  20271528.222     -431089.266 8   -336731.207 9  20271530.589
  20756946.690    -3703957.190 8  -2869486.625 9  20756949.069
  21897807.847    -7517025.004 7  -5797237.721 9  21897810.835
  23198804.261    -1037568.454 6   -800286.842 9  23198808.292
  21880169.862     4755205.307 7   3651032.489 9  21880172.780
 94  3 22 19 15 59.9990000  0  7  2 31 18 19 27 28 29
  23848125.620    -2649210.494 5  -1936639.209 9  23848132.323
  21892745.847    -6478326.521 7  -4991578.056 9  21892749.151
  20274138.245     -417373.380 8   -326043.546 9  20274140.577
  20750366.136    -3738539.139 8  -2896433.605 9  20750368.585
  21883329.034    -7593111.315 7  -5856525.730 9  21883332.198
  23200762.284    -1027277.795 6   -792268.186 9  23200766.339
  21891555.331     4815038.913 7   3697655.975 9  21891558.437
 94  3 22 19 16 29.9990000  0  7  2 31 18 19 27 28 29
  23828475.792    -2752470.622 5  -2017101.536 9  23828482.155
  21883810.792    -6525280.159 7  -5028165.297 9  21883814.366
  20276833.589     -403210.331 8   -315007.440 9  20276835.839
  20743811.870    -3772981.808 7  -2923272.054 9  20743814.472
  21868866.081    -7669115.629 7  -5915749.843 9  21868868.917
  23202817.581    -1016478.291 6   -783853.027 9  23202821.577
  21903002.386     4875193.369 7   3744529.471 9  21903005.585
 94  3 22 19 16 59.9990000  0  7  2 31 18 19 27 28 29
  23808855.112    -2855576.857 5  -2097443.908 9  23808861.745
  21874971.964    -6571728.157 7  -5064358.527 9  21874975.327
  20279614.698     -388595.160 8   -303619.031 9  20279617.030
  20737282.745    -3807292.761 7  -2950007.865 9  20737285.265
  21854417.714    -7745042.221 7  -5974913.397 9  21854420.819
  23204969.589    -1005171.311 6   -775042.428 9  23204973.538
  21914513.425     4935682.792 7   3791663.977 9  21914516.671
 94  3 22 19 17 29.9990000  0  7  2 31 18 19 27 28 29
  23789265.565    -2958518.264 5  -2177657.847 9  23789271.753
  21866231.862    -6617659.004 7  -5100148.784 9  21866235.144
  20282484.651     -373515.335 8   -291868.558 9  20282487.007
  20730779.714    -3841465.858 7  -2976636.254 9  20730782.222
  21839980.394    -7820910.153 7  -6034031.242 9  21839983.183
  23207219.448     -993347.042 6   -765828.749 9  23207223.222
  21926088.128     4996506.435 7   3839058.912 9  21926091.468
 94  3 22 19 17 59.9990000  0  7  2 31 18 19 27 28 29
  23769705.651    -3061304.374 5  -2257750.788 9  23769712.073
  21857589.878    -6663071.346 7  -5135535.015 9  21857592.995
  20285442.722     -357969.501 8   -279754.958 9  20285445.065
  20724302.276    -3875504.304 7  -3003159.722 9  20724304.901
  21825552.433    -7896730.725 7  -6093112.184 9  21825555.468
  23209567.120     -981012.247 6   -756217.258 9  23209571.562
  21937723.386     5057649.757 7   3886702.950 9  21937726.690
 94  3 22 19 18 29.9990000  0  7  2 31 18 19 27 28 29
  23750176.761    -3163930.444 5  -2337719.022 9  23750184.007
  21849050.347    -6707948.015 7  -5170503.844 9  21849053.452
  20288490.534     -341953.566 8   -267275.046 9  20288492.784
  20717852.847    -3909398.972 8  -3029571.159 9  20717855.296
  21811135.870    -7972489.483 7  -6152144.960 9  21811138.718
  23212011.815     -968165.890 6   -746207.137 9  23212015.507
  21949418.417     5119108.640 7   3934592.884 9  21949421.511
 94  3 22 19 18 59.9990000  0  7  2 31 18 19 27 28 29
  23730679.058    -3266388.690 5  -2417556.467 9  23730685.702
  21840615.737    -6752270.875 7  -5205041.135 9  21840618.948
  20291632.558     -325442.640 8   -254409.423 9  20291634.843
  20711433.479    -3943132.092 8  -3055856.715 9  20711435.894
  21796733.026    -8048174.531 7  -6211120.295 9  21796736.038
  23214552.464     -954814.187 6   -735803.238 9  23214556.519
  21961172.729     5180876.177 7   3982723.331 9  21961175.823
 94  3 22 19 19 29.9990000  0  7  2 31 18 19 27 28 29
  23711215.800    -3368669.627 5  -2497255.765 9  23711222.315
  21832285.214    -6796049.935 7  -5239154.685 9  21832288.413
  20294867.034     -308445.902 8   -241165.247 9  20294869.167
  20705046.737    -3976694.802 8  -3082009.483 9  20705049.069
  21782348.003    -8123770.132 7  -6270025.949 9  21782350.675
  23217190.042     -940952.052 6   -725001.592 9  23217194.062
  21972985.417     5242952.696 7   4031094.538 9  21972988.640
 94  3 22 19 19 59.9990000  0  7  2 31 18 19 27 28 29
  23691786.198    -3470772.504 5  -2576816.306 9  23691793.030
  21824054.769    -6839300.263 7  -5272856.240 9  21824057.944
  20298192.386     -290969.224 8   -227547.091 9  20298194.530
  20698688.870    -4010105.856 8  -3108044.078 9  20698691.460
  21767984.917    -8199249.320 7  -6328840.878 9  21767987.847
  23219922.612     -926593.323 6   -713812.989 9  23219926.550
  21984858.050     5305343.063 7   4079710.308 9  21984861.366
 94  3 22 19 20 29.9990000  0  7  2 31 18 19 27 28 29
  23672390.909    -3572698.977 5  -2656239.391 9  23672397.519
  21815922.190    -6882036.002 7  -5306156.816 9  21815925.284
  20301608.183     -273020.795 8   -213561.342 9  20301610.456
  20692360.237    -4043362.547 8  -3133958.391 9  20692362.804
  21753645.198    -8274603.915 7  -6387558.729 9  21753648.081
  23222747.253     -911750.399 6   -702247.100 9  23222750.909
  21996791.245     5368050.781 7   4128573.351 9  21996794.562
 94  3 22 19 20 59.9990000  0  7  2 31 18 19 27 28 29
  23653027.081    -3674451.885 5  -2735527.233 9  23653033.632
  21807888.503    -6924255.402 7  -5339055.050 9  21807891.597
  20305112.526     -254604.842 8   -199211.285 9  20305114.882
  20686061.815    -4076460.075 8  -3159748.673 9  20686064.417
  21739327.612    -8349844.891 7  -6446188.037 9  21739330.284
  23225664.948     -896416.077 6   -690298.279 9  23225668.804
  22008785.097     5431077.803 7   4177685.213 9  22008788.530
 94  3 22 19 21 29.9990000  0  7  2 31 18 19 27 28 29
  23633698.401    -3776027.167 5  -2814676.678 9  23633705.069
  21799954.573    -6965946.872 7  -5371541.908 9  21799957.585
  20308705.565     -235724.029 8   -184499.002 9  20308707.780
  20679793.753    -4109400.628 8  -3185416.636 9  20679796.378
  21725029.120    -8424982.547 7  -6504736.842 9  21725031.897
  23228679.222     -880578.493 6   -677957.330 9  23228682.843
  22020839.894     5494425.346 7   4227046.827 9  22020843.116
 94  3 22 19 21 59.9990000  0  7  2 31 18 19 27 28 29
  23614399.573    -3877440.515 5  -2893699.941 9  23614405.292
  21792123.261    -7007099.851 7  -5403609.156 9  21792126.425
  20312387.519     -216374.965 8   -169421.845 9  20312389.827
  20673554.831    -4142186.785 8  -3210964.290 9  20673557.292
  21710745.683    -8500042.017 7  -6563224.724 9  21710748.565
  23231786.589     -864246.433 6   -665231.077 9  23231790.491
  22032950.284     5558069.911 7   4276639.891 9  22032953.659
 94  3 22 19 22 29.9990000  0  7  2 31 18 19 27 28 29
  23595132.175    -3978690.921 5  -2972596.252 9  23595138.632
  21784397.940    -7047697.920 7  -5435244.007 9  21784401.104
  20316159.886     -196552.322 8   -153975.664 9  20316162.065
  20667348.229    -4174802.443 8  -3236379.091 9  20667350.749
  21696473.175    -8575044.264 7  -6621668.015 9  21696475.987
  23234992.534     -847400.309 6   -652104.249 9  23234996.366
  22045116.917     5622004.495 7   4326458.932 9  22045120.456
 94  3 22 19 22 59.9990000  0  7  2 31 18 19 27 28 29
  23575898.019    -4079767.183 5  -3051356.888 9  23575904.804
  21776780.144    -7087730.248 7  -5466438.011 9  21776783.437
  20320024.269     -176243.927 8   -138150.982 9  20320026.425
  20661172.761    -4207253.911 8  -3261665.951 9  20661175.187
  21682210.995    -8649994.188 7  -6680070.537 9  21682213.890
  23238299.034     -830026.980 6   -638566.617 9  23238303.499
  22057338.487     5686227.743 7   4376502.912 9  22057341.851
 94  3 22 19 23 29.9990000  0  7  2 31 18 19 27 28 29
  23556698.854    -4180661.214 6  -3129975.518 9  23556705.534
  21769267.183    -7127210.608 7  -5497201.914 9  21769270.323
  20323979.472     -155460.116 8   -121955.842 9  20323981.733
  20655026.495    -4239552.796 8  -3286833.916 9  20655029.015
  21667960.050    -8724881.846 7  -6738424.535 9  21667963.097
  23241704.331     -812127.590 6   -624619.075 9  23241709.101
  22069614.940     5750740.168 6   4426772.218 9  22069618.456
 94  3 22 19 23 59.9990000  0  7  2 31 18 19 27 28 29
  23537536.753    -4281355.228 5  -3208438.294 9  23537543.351
  21761859.534    -7166137.791 7  -5527534.768 9  21761862.745
  20328024.698     -134202.232 8   -105391.296 9  20328026.925
  20648911.042    -4271689.720 8  -3311875.670 9  20648913.503
  21653727.159    -8799677.407 7  -6796706.767 9  21653729.913
  23245212.339     -793693.775 6   -610255.106 9  23245216.616
  22081951.550     5815569.684 6   4477288.613 9  22081955.194
 94  3 22 19 24 29.9990000  0  7  2 31 18 19 27 28 29
  23518415.925    -4381839.654 6  -3286737.783 9  23518422.831
  21754555.565    -7204522.127 7  -5557444.615 9  21754558.706
  20332160.222     -112469.743 8    -88456.934 9  20332162.495
  20642825.964    -4303667.083 8  -3336793.086 9  20642828.425
  21639514.956    -8874362.487 7  -6854902.910 9  21639517.769
  23248819.284     -774740.216 6   -595486.147 9  23248823.397
  22094352.714     5880737.928 7   4528068.951 9  22094356.101
 94  3 22 19 24 59.9990000  0  7  2 31 18 19 27 28 29
  23499332.519    -4482122.774 6  -3364880.417 9  23499338.917
  21747351.433    -7242379.134 7  -5586943.552 9  21747354.397
  20336384.550      -90271.592 8    -71159.711 9  20336386.765
  20636769.456    -4335494.118 8  -3361593.366 9  20636772.011
  21625326.151    -8948926.303 7  -6913004.563 9  21625328.718
  23252520.401     -755287.426 6   -580328.174 9  23252524.491
  22106817.667     5946239.974 6   4579109.390 9  22106821.124
 94  3 22 19 25 29.9990000  0  7  2 31 18 19 27 28 29
  23480288.519    -4582196.689 6  -3442860.019 9  23480294.999
  21740248.722    -7279705.118 7  -5616028.704 9  21740251.745
  20340699.417      -67596.667 8    -53490.981 9  20340701.538
  20630743.917    -4367159.954 8  -3386268.039 9  20630746.378
  21611162.784    -9023355.284 7  -6971001.144 9  21611165.679
  23256319.042     -735329.047 6   -564776.229 9  23256323.284
  22119347.620     6012085.718 6   4630417.650 9  22119351.194
 94  3 22 19 25 59.9990000  0  7  2 31 18 19 27 28 29
  23461282.862    -4682071.507 6  -3520684.503 9  23461289.097
  21733244.206    -7316513.087 7  -5644710.202 9  21733247.136
  20345105.542      -44443.381 8    -35449.501 9  20345107.628
  20624746.901    -4398673.240 8  -3410823.839 9  20624749.397
  21597020.589    -9097672.164 7  -7028910.382 9  21597023.343
  23260207.979     -714891.465 6   -548850.870 9  23260212.198
  22131940.237     6078258.180 6   4681980.497 9  22131943.741
 94  3 22 19 26 29.9990000  0  7  2 31 18 19 27 28 29
  23442315.995    -4781746.011 6  -3598352.887 9  23442322.370
  21726340.933    -7352789.991 7  -5672977.891 9  21726343.886
  20349605.636      -20795.060 8    -17022.276 9  20349607.862
  20618782.440    -4430016.045 8  -3435246.799 9  20618784.796
  21582899.729    -9171876.657 7  -7086732.029 9  21582902.612
  23264188.948     -693970.162 6   -532548.606 9  23264193.929
  22144593.081     6144747.273 7   4733790.077 9  22144596.550
 94  3 22 19 26 59.9990000  0  7  2 31 18 19 27 28 29
  23423384.175    -4881230.643 6  -3675873.330 9  23423390.386
  21719539.776    -7388529.599 7  -5700826.906 9  21719543.022
  20354196.886        3332.703 8      1778.542 9  20354199.101
  20612849.815    -4461194.114 8  -3459541.391 9  20612852.276
  21568796.487    -9245990.557 7  -7144483.079 9  21568799.499
  23268265.667     -672548.212 6   -515856.214 9  23268269.897
  22157301.433     6211532.845 6   4785830.663 9  22157304.808
 94  3 22 19 27 29.9990000  0  7  2 31 18 19 27 28 29
  23404492.933    -4980504.865 6  -3753229.808 9  23404499.425
  21712843.370    -7423719.212 7  -5728247.358 9  21712846.745
  20358878.667       27935.709 8     20949.676 9  20358881.011
  20606949.722    -4492199.399 8  -3483701.350 9  20606952.065
  21554707.667    -9320026.093 7  -7202173.070 9  21554710.585
  23272437.940     -650623.849 6   -498772.330 9  23272442.101
  22170066.573     6278614.503 6   4838101.958 9  22170070.147
 94  3 22 19 27 59.9990000  0  7  2 31 18 19 27 28 29
  23385641.487    -5079569.633 6  -3830423.088 9  23385648.050
  21706254.815    -7458342.241 7  -5755226.313 9  21706257.851
  20363647.589       52996.439 8     40477.473 9  20363649.921
  20601085.394    -4523015.887 8  -3507714.193 9  20601087.690
  21540634.925    -9393978.950 7  -7259798.642 9  21540637.808
  23276702.714     -628211.853 6   -481308.471 9  23276707.026
  22182887.651     6345987.156 6   4890600.018 9  22182891.132
 94  3 22 19 28 29.9990000  0  7  2 31 18 19 27 28 29
  23366827.659    -5178435.224 6  -3907461.157 9  23366834.612
  21699778.276    -7492376.223 7  -5781746.269 9  21699781.476
  20368503.362       78513.234 8     60360.647 9  20368505.788
  20595256.987    -4553645.698 8  -3531581.565 9  20595259.331
  21526580.620    -9467836.730 7  -7317350.133 9  21526583.128
  23281065.019     -605289.376 6   -463446.822 9  23281069.308
  22195762.409     6413647.465 6   4943322.215 9  22195765.995
 94  3 22 19 28 59.9990000  0  7  2 31 18 19 27 28 29
  23348056.300    -5277082.277 6  -3984328.924 9  23348061.854
  21693415.159    -7525815.655 7  -5807802.941 9  21693418.511
  20373446.698      104490.434 8     80602.573 9  20373449.183
  20589462.831    -4584093.030 8  -3555306.753 9  20589465.198
  21512545.378    -9541591.911 7  -7374821.673 9  21512547.851
  23285525.878     -581847.355 6   -445180.345 9  23285530.354
  22208695.792     6481609.240 6   4996279.321 9  22208699.589
 94  3 22 19 29 29.9990000  0  7  2 31 18 19 27 28 29
  23329324.815    -5375514.017 6  -4061028.917 9  23329330.522
  21687164.808    -7558661.657 7  -5833397.203 9  21687168.030
  20378477.526      130927.107 8    101202.536 9  20378479.999
  20583701.183    -4614370.358 8  -3578899.473 9  20583703.632
  21498531.706    -9615232.944 7  -7432204.261 9  21498534.519
  23290080.659     -557910.630 6   -426528.360 9  23290084.866
  22221685.894     6549874.179 6   5049472.669 9  22221689.538
 94  3 22 19 29 59.9990000  0  7  2 31 18 19 27 28 29
  23310629.706    -5473754.179 6  -4137579.607 9  23310635.261
  21681026.909    -7590915.610 7  -5858530.138 9  21681030.144
  20383597.440      157832.454 8    122167.702 9  20383599.972
  20577968.683    -4644494.146 8  -3602372.555 9  20577971.226
  21484543.339    -9688743.557 7  -7489485.229 9  21484546.093
  23294731.854     -533470.273 6   -407483.950 9  23294736.062
  22234735.620     6618449.726 6   5102908.041 9  22234739.229
 94  3 22 19 30 29.9990000  0  7  2 31 18 19 27 28 29
  23291972.401    -5571802.167 6  -4213980.552 9  23291978.812
  21674998.339    -7622596.024 7  -5883216.155 9  21675001.538
  20388808.065      185216.165 8    143505.609 9  20388810.597
  20572262.831    -4674479.463 8  -3625737.735 9  20572265.140
  21470576.823    -9762137.687 7  -7546675.434 9  21470579.706
  23299481.933     -508509.733 6   -388034.208 9  23299485.882
  22247844.362     6687333.763 6   5156583.790 9  22247847.831
 94  3 22 19 30 59.9990000  0  7  2 31 18 19 27 28 29
  23273354.136    -5669642.338 6  -4290219.549 9  23273360.429
  21669077.120    -7653712.167 7  -5907462.486 9  21669080.144
  20394110.854      213081.796 8    165219.048 9  20394113.433
  20566584.261    -4704321.817 8  -3648991.508 9  20566586.569
  21456633.909    -9835409.176 7  -7603770.074 9  21456636.698
  23304326.354     -483051.518 6   -368196.661 9  23304330.046
  22261011.917     6756529.231 6   5210502.221 9  22261015.515
 94  3 22 19 31 29.9990000  0  7  2 31 18 19 27 28 29
  23254772.331    -5767288.159 6  -4366307.126 9  23254778.448
  21663261.800    -7684271.680 7  -5931275.072 9  21663265.081
  20399506.448      241435.409 8    187312.729 9  20399508.991
  20560934.878    -4734009.224 8  -3672124.544 9  20560937.187
  21442714.487    -9908554.160 7  -7660766.138 9  21442717.241
  23309265.964     -457093.011 6   -347969.275 9  23309269.878
  22274235.964     6826022.600 6   5264652.787 9  22274239.526
 94  3 22 19 31 59.9990000  0  7  2 31 18 19 27 28 29
  23236227.972    -5864739.531 6  -4442243.157 9  23236234.265
  21657548.839    -7714293.714 7  -5954668.856 9  21657552.003
  20404992.909      270266.847 8    209778.741 9  20404995.464
  20555316.628    -4763531.915 8  -3695129.236 9  20555319.089
  21428815.909    -9981592.352 7  -7717678.995 9  21428818.522
  23314300.136     -430639.153 6   -327355.902 9  23314304.108
  22287512.651     6895793.936 6   5319019.945 9  22287516.812
 94  3 22 19 32 29.9990000  0  7  2 31 18 19 27 28 29
  23217726.089    -5961966.862 6  -4518004.618 9  23217732.171
  21651941.167    -7743761.128 7  -5977630.568 9  21651945.163
  20410571.394      299580.987 8    232620.884 9  20410573.925
  20549737.901    -4792850.184 8  -3717974.604 9  20549740.022
  21414939.276   -10054514.546 7  -7774501.460 9  21414941.890
  23319429.323     -403687.291 6   -306354.477 9  23319432.921
  22300841.628     6965836.253 6   5373598.251 9  22300845.261
 94  3 22 19 32 59.9990000  0  7  2 31 18 19 27 28 29
  23199265.894    -6058978.714 6  -4593598.179 9  23199271.636
  21646440.675    -7772667.591 7  -6000154.978 9  21646443.874
  20416238.862      329363.214 8    255827.769 9  20416241.171
  20544196.315    -4821969.199 8  -3740664.774 9  20544198.636
  21401086.120   -10127312.559 7  -7831227.163 9  21401088.792
  23324650.831     -376248.533 6   -284973.651 9  23324654.300
  22314222.019     7036150.945 6   5428388.813 9  22314226.050
 94  3 22 19 33 29.9990000  0  7  2 31 18 19 27 28 29
  23180845.854    -6155774.632 6  -4669023.455 9  23180851.374
  21641049.011    -7801001.726 7  -6022233.514 9  21641051.870
  20421992.894      359600.275 8    279389.072 9  20421995.425
  20538693.229    -4850890.077 8  -3763200.514 9  20538695.550
  21387253.487   -10200002.448 7  -7887868.611 9  21387256.194
  23329967.175     -348310.307 6   -263203.636 9  23329970.515
  22327655.808     7106745.577 6   5483397.502 9  22327659.827
 94  3 22 19 33 59.9990000  0  7  2 31 18 19 27 28 29
  23162467.894    -6252350.780 6  -4744277.503 9  23162472.675
  21635771.480    -7828735.943 7  -6043844.589 9  21635774.644
  20427832.854      390290.335 8    303303.363 9  20427835.269
  20533225.479    -4879622.013 8  -3785589.034 9  20533227.765
  21373440.433   -10272592.371 7  -7944432.164 9  21373443.046
  23335378.698     -319874.155 6   -241045.627 9  23335381.757
  22341144.589     7177629.605 6   5538631.688 9  22341148.644
 94  3 22 19 34 29.9990000  0  7  2 31 18 19 27 28 29
  23144128.690    -6348723.313 6  -4819372.888 9  23144134.339
  21630609.917    -7855858.801 7  -6064979.283 9  21630613.245
  20433759.690      421436.059 8    327572.708 9  20433762.292
  20527790.386    -4908184.680 8  -3807845.655 9  20527792.448
  21359644.636   -10345089.841 7  -8000923.673 9  21359646.909
  23340885.644     -290936.243 6   -218496.655 9  23340888.866
  22354689.800     7248808.579 6   5594095.701 9  22354693.690
 94  3 22 19 34 59.9990000  0  7  2 31 18 19 27 28 29
  23125828.261    -6444891.938 6  -4894309.372 9  23125833.663
  21625567.190    -7882357.698 7  -6085627.778 9  21625570.472
  20439775.620      453048.657 8    352205.855 9  20439778.222
  20522385.183    -4936589.586 8  -3829979.346 9  20522387.351
  21345865.589   -10417498.358 7  -8057345.871 9  21345868.226
  23346488.386     -261492.637 6   -195553.607 9  23346491.608
  22368295.433     7320305.234 6   5649807.265 9  22368299.440
 94  3 22 19 35 29.9990000  0  7  2 31 18 19 27 28 29
  23107567.440    -6540853.896 6  -4969084.830 9  23107572.819
  21620643.519    -7908232.221 7  -6105789.742 9  21620646.788
  20445882.831      485142.142 8    377213.713 9  20445885.351
  20517011.730    -4964826.031 8  -3851981.768 9  20517014.167
  21332102.737   -10489822.520 7  -8113702.340 9  21332105.433
  23352186.495     -231548.669 6   -172220.692 9  23352189.765
  22381957.948     7392103.285 6   5705753.671 9  22381962.226
 94  3 22 19 35 59.9990000  0  7  2 31 18 19 27 28 29
  23089344.542    -6636614.917 6  -5043703.724 9  23089349.909
  21615835.683    -7933497.454 7  -6125476.942 9  21615838.917
  20452081.940      517718.801 8    402598.075 9  20452084.437
  20511671.854    -4992889.255 8  -3873849.214 9  20511674.187
  21318358.300   -10562050.317 7  -8169983.713 9  21318360.995
  23357978.417     -201110.836 6   -148502.952 9  23357981.358
  22395675.753     7464188.608 6   5761923.937 9  22395679.714
 94  3 22 19 36 29.9990000  0  7  2 31 18 19 27 28 29
  23071162.753    -6732160.227 6  -5118154.525 9  23071168.343
  21611139.878    -7958175.078 7  -6144706.255 9  21611143.124
  20458371.339      550769.261 8    428351.631 9  20458373.905
  20506363.956    -5020780.881 8  -3895582.951 9  20506366.312
  21304636.776   -10634156.938 7  -8226170.654 9  21304639.460
  23363864.206     -170181.732 6   -124402.393 9  23363867.276
  22409448.151     7536563.236 6   5818319.617 9  22409452.394
 94  3 22 19 36 59.9990000  0  7  2 31 18 19 27 28 29
  23053023.206    -6827484.761 6  -5192433.288 9  23053029.335
  21606553.112    -7982278.282 7  -6163487.974 9  21606556.335
  20464749.058      584284.431 8    454467.299 9  20464751.530
  20501090.792    -5048491.083 8  -3917175.317 9  20501093.194
  21290942.784   -10706118.268 7  -8282244.397 9  21290945.444
  23369840.901     -138774.761 6    -99929.476 9  23369843.749
  22423274.722     7609221.398 6   5874936.244 9  22423278.812
 94  3 22 19 37 29.9990000  0  7  2 31 18 19 27 28 29
  23034925.362    -6922589.216 6  -5266540.580 9  23034930.636
  21602070.183    -8005836.519 7  -6181845.049 9  21602073.546
  20471214.878      618261.994 8    480943.271 9  20471217.315
  20495853.073    -5076015.587 8  -3938622.980 9  20495855.511
  21277278.370   -10777926.837 7  -8338199.098 9  21277280.925
  23375906.933     -106895.725 6    -75088.722 9  23375910.413
  22437151.362     7682144.287 6   5931759.142 9  22437155.546
 94  3 22 19 37 59.9990000  0  7  2 31 18 19 27 28 29
  23016870.808    -7017465.342 6  -5340469.959 9  23016876.011
  21597690.214    -8028853.613 7  -6199780.448 9  21597693.343
  20477767.550      652695.847 8    507774.796 9  20477770.128
  20490650.237    -5103358.260 8  -3959928.956 9  20490652.581
  21263644.409   -10849572.619 7  -8394026.953 9  21263647.069
  23382062.315      -74549.040 6    -49883.555 9  23382066.335
  22451082.487     7755350.448 6   5988802.769 9  22451086.823
 94  3 22 19 38 29.9990000  0  7  2 31 18 19 27 28 29
  22998859.206    -7112114.955 6  -5414222.828 9  22998864.679
  21593413.386    -8051328.786 7  -6217293.574 9  21593416.386
  20484406.558      687585.282 8    534961.316 9  20484409.112
  20485481.104    -5130520.119 8  -3981094.051 9  20485483.390
  21250038.519   -10921071.608 7  -8449740.421 9  21250041.155
  23388305.362      -41741.214 6    -24319.056 9  23388309.358
  22465064.901     7828829.175 6   6046058.786 9  22465069.085
 94  3 22 19 38 59.9990000  0  7  2 31 18 19 27 28 29
  22980891.987    -7206536.014 6  -5487797.607 9  22980897.425
  21589241.847    -8073249.977 7  -6234375.018 9  21589245.093
  20491136.644      722950.360 8    562518.478 9  20491139.128
  20480350.534    -5157482.671 8  -4002103.836 9  20480352.784
  21236457.854   -10992439.203 7  -8505351.510 9  21236460.444
  23394638.167       -8461.874 6      1612.841 9  23394641.905
  22479100.370     7902584.993 6   6103530.712 9  22479104.835
 94  3 22 19 39 29.9990000  0  7  2 31 18 19 27 28 29
  22962969.839    -7300716.049 6  -5561184.575 9  22962974.983
  21585179.659    -8094598.138 7  -6251009.950 9  21585182.741
  20497957.847      758795.555 8    590449.755 9  20497960.472
  20475254.573    -5184262.642 8  -4022971.345 9  20475256.882
  21222898.206   -11063694.739 7  -8560875.282 9  21222901.030
  23401062.097       25298.848 6     27919.855 9  23401066.550
  22493186.690     7976608.074 6   6161210.898 9  22493191.249
 94  3 22 19 39 59.9990000  0  7  2 31 18 19 27 28 29
  22945094.433    -7394653.219 6  -5634382.306 9  22945099.765
  21581232.362    -8115339.851 7  -6267172.321 9  21581235.480
  20504867.925      795109.500 8    618746.286 9  20504870.515
  20470190.378    -5210874.183 8  -4043707.618 9  20470192.815
  21209359.808   -11134839.199 7  -8616312.495 9  21209362.585
  23407579.870       59550.468 6     54609.385 9  23407584.077
  22507324.729     8050904.482 6   6219104.063 9  22507329.335
 94  3 22 19 40 29.9990000  0  7  2 31 18 19 27 28 29
  22927264.159    -7488350.846 6  -5707393.374 9  22927269.151
  21577402.761    -8135466.741 7  -6282855.613 9  21577405.843
  20511866.401      831886.195 8    647403.404 9  20511869.073
  20465159.776    -5237310.407 8  -4064307.280 9  20465162.050
  21195843.722   -11205866.793 7  -8671658.644 9  21195846.511
  23414192.347       94299.218 6     81686.286 9  23414196.976
  22521514.526     8125471.026 6   6277207.722 9  22521518.991
 94  3 22 19 40 59.9990000  0  7  2 31 18 19 27 28 29
  22909480.378    -7581804.116 6  -5780214.041 9  22909485.593
  21573691.604    -8154966.478 7  -6298050.214 9  21573694.745
  20518952.034      869120.562 8    676417.147 9  20518954.753
  20460160.737    -5263580.437 8  -4084777.442 9  20460163.187
  21182351.644   -11276767.671 7  -8726906.062 9  21182354.444
  23420897.581      129535.406 6    109143.016 9  23420902.690
  22535754.495     8200305.916 6   6335520.485 9  22535758.913
 94  3 22 19 41 29.9990000  0  7  2 31 18 19 27 28 29
  22891741.604    -7675022.503 6  -5852851.680 9  22891746.983
  21570098.370    -8173848.172 7  -6312763.220 9  21570101.522
  20526119.769      906787.219 8    705767.749 9  20526122.522
  20455191.229    -5289695.567 8  -4105126.895 9  20455193.538
  21168883.698   -11347543.209 7  -8782055.808 9  21168886.499
  23427691.776      165239.726 6    136964.536 9  23427696.851
  22550044.386     8275396.289 6   6394032.333 9  22550049.038
 94  3 22 19 41 59.9990000  0  7  2 31 18 19 27 28 29
  22874045.964    -7768012.482 6  -5925311.339 9  22874051.519
  21566617.753    -8192140.120 7  -6327016.681 9  21566620.929
  20533367.808      944877.065 8    735448.103 9  20533370.456
  20450256.448    -5315628.354 8  -4125334.268 9  20450258.815
  21155439.761   -11418191.618 7  -8837106.490 9  21155442.550
  23434571.956      201393.342 6    165136.130 9  23434576.960
  22564383.737     8350747.789 6   6452747.649 9  22564388.296
 94  3 22 19 42 29.9990000  0  7  2 31 18 19 27 28 29
  22856393.620    -7860773.890 6  -5997592.899 9  22856398.940
  21563244.362    -8209866.419 7  -6340829.380 9  21563247.503
  20540699.136      983403.316 8    765468.519 9  20540701.784
  20445359.464    -5341361.773 8  -4145386.281 9  20445361.937
  21142016.347   -11488731.614 7  -8892072.709 9  21142018.995
  23441536.362      237988.963 6    193652.173 9  23441541.261
  22578769.761     8426345.849 6   6511655.082 9  22578773.980
 94  3 22 19 42 59.9990000  0  7  2 31 18 19 27 28 29
  22838787.792    -7953295.372 6  -6069687.487 9  22838793.229
  21559978.831    -8227026.448 7  -6354200.832 9  21559981.960
  20548116.854     1022384.158 8    795843.163 9  20548119.456
  20440498.644    -5366906.650 8  -4165291.388 9  20440501.175
  21128612.058   -11559172.821 7  -8946961.937 9  21128614.753
  23448585.831      275035.323 6    222519.420 9  23448590.706
  22593201.526     8502182.872 6   6570748.727 9  22593206.073
 94  3 22 19 43 29.9990000  0  7  2 31 18 19 27 28 29
  22821225.612    -8045584.970 6  -6141601.392 9  22821230.815
  21556817.972    -8243637.193 7  -6367144.259 9  21556821.405
  20555621.565     1061820.216 8    826572.518 9  20555624.226
  20435675.222    -5392252.482 8  -4185041.391 9  20435677.753
  21115227.901   -11629505.899 7  -9001766.912 9  21115230.644
  23455723.433      312544.496 6    251747.318 9  23455727.921
  22607679.362     8578266.905 6   6630034.844 9  22607684.202
 94  3 22 19 43 59.9990000  0  7  2 31 18 19 27 28 29
  22803704.808    -8137658.502 6  -6213346.932 9  22803709.964
  21553762.573    -8259693.651 7  -6379655.773 9  21553765.784
  20563215.128     1101724.758 8    857666.923 9  20563217.671
  20430889.667    -5417401.278 8  -4204637.849 9  20430892.163
  21101863.753   -11699734.548 7  -9056490.512 9  21101866.425
  23462950.214      350521.334 6    281339.639 9  23462955.042
  22622202.112     8654587.397 6   6689505.213 9  22622206.659
 94  3 22 19 44 29.9990000  0  7  2 31 18 19 27 28 29
  22786224.683    -8229517.996 6  -6284925.690 9  22786229.769
  21550820.558    -8275154.321 7  -6391703.033 9  21550823.616
  20570899.378     1142104.931 8    889131.948 9  20570901.944
  20426140.526    -5442358.052 8  -4224084.680 9  20426142.894
  21088524.253   -11769835.414 7  -9111114.540 9  21088526.761
  23470268.386      388978.042 6    311305.869 9  23470273.249
  22636771.800     8731151.152 6   6749165.133 9  22636776.522
 94  3 22 19 44 59.9990000  0  7  2 31 18 19 27 28 29
  22768783.854    -8321167.824 6  -6356341.077 9  22768789.081
  21547994.308    -8290006.077 7  -6403275.813 9  21547997.437
  20578670.854     1182944.112 8    920954.645 9  20578673.456
  20421428.729    -5467118.866 8  -4243378.812 9  20421431.237
  21075214.409   -11839778.598 7  -9165615.696 9  21075216.940
  23477677.815      427913.071 6    341644.828 9  23477682.011
  22651390.620     8807970.940 6   6809024.561 9  22651395.272
 94  3 22 19 45 29.9990000  0  7  2 31 18 19 27 28 29
  22751382.581    -8412612.377 6  -6427596.506 9  22751387.796
  21545286.487    -8304236.754 7  -6414364.641 9  21545289.394
  20586528.558     1224236.195 8    953130.256 9  20586531.276
  20416758.339    -5491661.573 8  -4262502.997 9  20416760.800
  21061935.784   -11909557.408 7  -9219988.774 9  21061938.526
  23485176.065      467317.292 6    372349.383 9  23485180.894
  22666059.573     8885054.216 6   6869089.315 9  22666064.214
 94  3 22 19 45 59.9990000  0  7  2 31 18 19 27 28 29
  22734025.940    -8503822.621 6  -6498669.353 9  22734030.745
  21542700.456    -8317826.154 7  -6424953.770 9  21542703.608
  20594474.089     1265991.613 7    985666.902 9  20594476.737
  20412130.104    -5515983.061 8  -4281454.802 9  20412132.460
  21048687.776   -11979177.524 7  -9274238.197 9  21048690.284
  23492764.159      507190.022 6    403419.020 9  23492768.179
  22680778.776     8962408.194 6   6929364.983 9  22680783.675
 94  3 22 19 46 29.9990000  0  8  2 31 16 18 19 27 28 29
  22716715.112    -8594791.740 6  -6569554.311 9  22716720.233
  21540232.019    -8330797.648 7  -6435061.414 9  21540235.065
  23964007.003      -38855.90715
  20602503.956     1308188.294 8   1018547.390 9  20602506.815
  20407539.300    -5540107.439 8  -4300253.015 9  20407541.655
  21035466.878   -12048651.863 7  -9328374.025 9  21035469.444
  23500436.808      547512.842 6    434839.371 9  23500441.237
  22695548.612     9040022.925 6   6989843.848 9  22695552.948
 94  3 22 19 46 59.9990000  0  8  2 31 16 18 19 27 28 29
  22699451.862    -8685508.838 6  -6640242.887 9  22699457.089
  21537877.456    -8343172.643 7  -6444704.247 9  21537880.644
  23954446.050      -89100.557 5     -9098.59419  23954452.858
  20610619.042     1350833.501 8   1051777.380 9  20610621.761
  20402984.190    -5564044.531 8  -4318905.291 9  20402986.487
  21022272.026   -12117991.505 7  -9382404.889 9  21022274.616
  23508196.511      588287.901 6    466612.114 9  23508200.753
  22710368.089     9117899.799 6   7050526.968 9  22710373.292
 94  3 22 19 47 29.9990000  0  8  2 31 16 18 19 27 28 29
  22682238.284    -8775968.860 6  -6710731.147 9  22682243.452
  21535634.190    -8354960.424 7  -6453889.510 9  21535637.284
  23944982.198     -138833.426 5    -47851.458 9  23944989.198
  20618821.526     1393938.353 7   1085365.534 9  20618824.280
  20398460.636    -5587816.817 8  -4337429.137 9  20398463.026
  21009100.128   -12187210.240 7  -9436341.541 9  21009102.612
  23516037.737      629498.037 5    498723.896 9  23516042.050
  22725237.651     9196036.978 6   7111412.930 9  22725242.761
 94  3 22 19 47 59.9990000  0  8  2 31 16 18 19 27 28 29
  22665072.644    -8866171.552 6  -6781018.888 9  22665077.472
  21533500.690    -8366172.585 7  -6462626.245 9  21533503.925
  23935616.417     -188046.141 5    -86199.038 9  23935621.151
  20627111.003     1437498.334 8   1119308.332 9  20627113.733
  20393966.058    -5611436.585 8  -4355834.136 9  20393968.612
  20995952.589   -12256301.120 7  -9490178.563 9  20995955.062
  23523964.605      671153.202 6    531182.443 9  23523968.894
  22740156.667     9274435.885 6   7172502.834 9  22740161.390
 94  3 22 19 48 29.9990000  0  8  2 31 16 18 19 27 28 29
  22647953.206    -8956135.449 6  -6851120.552 9  22647958.104
  21531479.667    -8376793.181 7  -6470902.020 9  21531482.854
  23926351.503     -236733.676 5   -124137.360 9  23926356.800
  20635486.542     1481513.444 7   1153605.770 9  20635489.366
  20389504.011    -5634883.771 8  -4374104.659 9  20389506.589
  20982834.401   -12325237.615 7  -9543895.289 9  20982836.804
  23531979.378      713267.957 6    563999.104 9  23531983.104
  22755126.636     9353103.754 6   7233802.317 9  22755131.663
 94  3 22 19 48 59.9990000  0  8  2 31 16 18 19 27 28 29
  22630875.823    -9045876.359 6  -6921048.458 9  22630881.179
  21529569.745    -8386827.916 7  -6478721.288 9  21529572.851
  23917183.261     -284913.150 5   -161679.809 9  23917188.112
  20643945.917     1525966.243 7   1188244.269 9  20643948.788
  20385077.339    -5658146.861 8  -4392231.735 9  20385079.858
  20969743.862   -12394029.767 7  -9597499.529 9  20969746.487
  23540079.550      755831.878 6    597165.764 9  23540083.276
  22770144.722     9432023.987 6   7295298.432 9  22770149.315
 94  3 22 19 49 29.9990000  0  8  2 31 16 18 19 27 28 29
  22613844.370    -9135376.987 6  -6990789.131 9  22613849.608
  21527774.784    -8396261.663 7  -6486072.245 9  21527777.983
  23908111.604     -332585.217 5   -198826.890 9  23908116.526
  20652489.456     1570862.930 7   1223228.650 9  20652492.362
  20380691.253    -5681196.022 8  -4410192.111 9  20380693.702
  20956683.386   -12462660.893 7  -9650978.303 9  20956685.812
  23548268.823      798869.084 6    630701.220 9  23548273.030
  22785212.011     9511201.055 6   7356994.700 9  22785216.792
 94  3 22 19 49 59.9990000  0  8  2 31 16 18 19 27 28 29
  22596855.386    -9224653.970 6  -7060355.533 9  22596860.671
  21526093.667    -8405096.516 7  -6492956.536 9  21526096.901
  23899135.144     -379753.850 5   -235581.650 9  23899140.593
  20661113.440     1616181.253 8   1258541.578 9  20661116.347
  20376348.886    -5704014.914 8  -4427973.057 9  20376351.194
  20943652.073   -12531142.455 7  -9704340.543 9  20943654.581
  23556549.839      842387.152 6    664611.380 9  23556553.858
  22800323.167     9590610.872 6   7418872.309 9  22800328.265
 94  3 22 19 50 29.9990000  0  8  2 31 16 18 19 27 28 29
  22579911.456    -9313695.312 6  -7129738.311 9  22579916.659
  21524528.479    -8413320.077 7  -6499364.499 9  21524531.620
  23890257.104     -426411.528 5   -271938.276 9  23890262.565
  20669817.042     1661920.812 8   1294182.743 9  20669819.890
  20372051.487    -5726597.853 8  -4445570.146 9  20372053.796
  20930648.183   -12599477.913 7  -9757588.931 9  20930650.585
  23564919.214      886368.058 6    698882.182 9  23564923.222
  22815477.386     9670246.027 6   7480925.524 9  22815482.483
 94  3 22 19 50 59.9990000  0  8  2 31 16 18 19 27 28 29
  22563017.925    -9402470.914 6  -7198914.031 9  22563022.940
  21523080.433    -8420929.497 7  -6505293.911 9  21523083.690
  23881478.019     -472546.859 5   -307887.881 9  23881482.753
  20678604.519     1708097.769 8   1330164.732 9  20678607.308
  20367796.690    -5748956.848 8  -4462992.730 9  20367799.128
  20917672.433   -12667664.839 7  -9810721.577 9  20917674.800
  23573374.190      930801.795 5    733505.835 9  23573378.198
  22830674.597     9750106.284 6   7543154.110 9  22830680.315
 94  3 22 19 51 29.9990000  0  8  2 31 16 18 19 27 28 29
  22546172.058    -9490996.072 6  -7267894.590 9  22546177.261
  21521751.722    -8427911.932 7  -6510734.765 9  21521754.874
  23872800.667     -518148.820 5   -343421.873 9  23872806.163
  20687475.628     1754715.595 8   1366490.261 9  20687478.452
  20363579.847    -5771116.647 8  -4480260.101 9  20363582.366
  20904725.425   -12735702.041 7  -9863737.555 9  20904727.897
  23581914.120      975677.356 6    768473.794 9  23581917.858
  22845913.214     9830187.914 6   7605555.216 9  22845918.733
 94  3 22 19 51 59.9990000  0  8  2 31 16 18 19 27 28 29
  22529374.690    -9579267.457 6  -7336677.408 9  22529379.940
  21520545.065    -8434252.817 7  -6515675.704 9  21520548.101
  23864224.167     -563215.878 5   -378539.073 9  23864229.546
  20696431.729     1801779.027 8   1403163.013 9  20696434.413
  20359399.081    -5793085.728 8  -4497378.861 9  20359401.507
  20891806.948   -12803588.735 7  -9916636.260 9  20891809.397
  23590534.886     1020974.927 6    803770.554 9  23590538.718
  22861194.198     9910488.010 6   7668126.535 9  22861199.483
 94  3 22 19 52 29.9990000  0  8  2 31 16 18 19 27 28 29
  22512624.206    -9667293.008 6  -7405268.663 9  22512629.315
  21519457.362    -8439969.358 7  -6520130.146 9  21519460.480
  23855744.183     -607781.004 5   -413265.126 9  23855749.105
  20705471.011     1849280.064 8   1440176.758 9  20705473.870
  20355249.284    -5814894.119 8  -4514372.411 9  20355251.675
  20878913.604   -12871344.492 7  -9969432.934 9  20878916.030
  23599229.753     1066667.291 6    839374.953 9  23599233.714
  22876513.581     9990993.265 6   7730857.732 9  22876518.784
 94  3 22 19 52 59.9990000  0  8  2 31 16 18 19 27 28 29
  22495917.987    -9755081.685 6  -7473675.339 9  22495922.944
  21518486.558    -8445069.119 7  -6524103.980 9  21518489.687
  23847360.097     -651840.963 5   -447597.533 9  23847364.362
  20714596.034     1897232.681 8   1477542.377 9  20714598.718
  20351132.190    -5836530.044 8  -4531231.569 9  20351134.616
  20866046.854   -12938959.609 7 -10022120.025 9  20866049.245
  23608003.565     1112777.315 6    875304.794 9  23608007.690
  22891875.042    10071711.960 6   7793755.256 9  22891879.976
 94  3 22 19 53 29.9990000  0  8  2 31 16 18 19 27 28 29
  22479258.120    -9842631.146 6  -7541895.619 9  22479263.147
  21517632.175    -8449562.053 7  -6527604.957 9  21517635.304
  23839071.198     -695399.298 5   -481539.091 9  23839075.358
  20723806.933     1945636.958 8   1515259.941 9  20723809.733
  20347050.698    -5857977.165 8  -4547943.608 9  20347053.042
  20853207.253   -13006432.412 7 -10074696.217 9  20853209.714
  23616860.761     1159321.078 6    911572.632 9  23616864.476
  22907275.886    10152644.063 6   7856819.063 9  22907280.937
 94  3 22 19 53 59.9990000  0  8  2 31 16 18 19 27 28 29
  22462646.245    -9929925.214 6  -7609916.885 9  22462651.226
  21516887.456    -8453473.663 7  -6530652.953 9  21516890.386
  23830876.308     -738465.908 5   -515097.496 9  23830881.745
  20733101.776     1994480.193 8   1553319.551 9  20733104.694
  20343008.972    -5879216.888 8  -4564494.038 9  20343011.456
  20840394.323   -13073764.435 7 -10127162.707 9  20840396.808
  23625800.269     1206302.613 5    948181.592 9  23625805.132
  22922718.300    10233795.027 6   7920053.411 9  22922723.222
 94  3 22 19 54 29.9980000  0  8  2 31 16 18 19 27 28 29
  22446081.404   -10016975.582 6  -7677748.262 9  22446086.525
  21516249.623    -8456827.035 7  -6533265.959 9  21516252.436
  23822775.201     -781035.271 5   -548268.426 9  23822780.322
  20742476.951     2043747.536 8   1591709.632 9  20742479.869
  20339005.951    -5900251.700 8  -4580884.801 9  20339008.518
  20827609.904   -13140946.542 7 -10179512.384 9  20827612.271
  23634825.795     1253729.859 6    985137.847 9  23634830.412
  22938201.592    10315161.901 6   7983455.985 9  22938206.936
 94  3 22 19 54 59.9980000  0  8  2 31 16 18 19 27 28 29
  22429562.475   -10103781.755 6  -7745389.351 9  22429567.525
  21515716.404    -8459628.470 7  -6535448.877 9  21515719.135
  23814771.178     -823095.155 5   -581042.356 9  23814776.709
  20751931.584     2093432.868 7   1630425.422 9  20751934.443
  20335040.764    -5921088.780 7  -4597121.486 9  20335043.307
  20814857.029   -13207965.022 7 -10231734.551 9  20814859.432
  23643938.381     1301614.856 6   1022450.784 9  23643943.033
  22953727.670    10396748.776 6   8047029.995 9  22953733.260
 94  3 22 19 55 29.9980000  0  8  2 31 16 18 19 27 28 29
  22413093.123   -10190329.386 6  -7812828.984 9  22413098.010
  21515291.397    -8461861.510 7  -6537188.892 9  21515294.326
  23806865.084     -864639.343 5   -613414.455 9  23806869.854
  20761463.076     2143519.305 8   1669453.759 9  20761466.029
  20331113.756    -5941726.597 8  -4613202.898 9  20331116.311
  20802134.982   -13274818.188 7 -10283827.904 9  20802137.408
  23653136.404     1349955.344 5   1060118.660 9  23653140.576
  22969293.639    10478549.586 5   8110770.712 9  22969299.205
 94  3 22 19 55 59.9980000  0  8  2 31 16 18 19 27 28 29
  22396668.943   -10276638.420 6  -7880082.696 9  22396673.736
  21514973.865    -8463528.239 7  -6538487.627 9  21514976.760
  23799058.998     -905664.006 5   -645381.703 9  23799065.986
  20771067.272     2193990.157 7   1708781.637 9  20771070.272
  20327223.896    -5962168.227 8  -4629131.443 9  20327226.357
  20789442.990   -13341515.573 7 -10335799.863 9  20789445.322
  23662419.764     1398738.762 5   1098131.674 9  23662423.854
  22984899.592    10560558.776 5   8174673.792 9  22984904.959
 94  3 22 19 56 29.9980000  0  8  2 31 16 18 19 27 28 29
  22380292.037   -10362698.945 6  -7947142.764 9  22380296.760
  21514770.412    -8464599.850 7  -6539322.641 9  21514773.365
  23791353.709     -946153.738 5   -676932.159 9  23791358.514
  20780750.795     2244877.190 7   1748433.815 9  20780753.830
  20323371.022    -5982415.405 8  -4644908.467 9  20323373.436
  20776781.381   -13408052.113 7 -10387646.495 9  20776783.654
  23671787.896     1447963.270 5   1136488.363 9  23671792.666
  23000546.193    10642778.725 5   8238741.088 9  23000551.713
 94  3 22 19 56 59.9980000  0  8  2 31 16 18 19 27 28 29
  22363964.459   -10448501.677 6  -8014001.969 9  22363969.369
  21514682.740    -8465060.871 7  -6539681.861 9  21514685.576
  23783748.271     -986118.648 5   -708073.657 9  23783753.604
  20790513.975     2296183.880 7   1788412.994 9  20790516.951
  20319556.365    -6002461.772 8  -4660529.016 9  20319558.697
  20764147.545   -13474442.856 7 -10439379.521 9  20764149.994
  23681237.131     1497617.668 5   1175180.079 9  23681240.787
  23016233.607    10725217.635 5   8302979.038 9  23016240.490
 94  3 22 19 57 29.9980000  0  8  2 31 16 18 19 27 28 29
  22347684.272   -10534051.614 6  -8080664.184 9  22347688.947
  21514711.092    -8464910.997 7  -6539565.064 9  21514714.174
  23776240.834    -1025572.952 5   -738817.288 9  23776246.670
  20800358.936     2347918.228 7   1828725.415 9  20800361.889
  20315780.842    -6022301.718 8  -4675988.709 9  20315783.350
  20751539.490   -13540700.234 7 -10491008.609 9  20751542.080
  23690763.482     1547676.372 5   1214186.793 9  23690767.209
  23031963.592    10807876.929 5   8367388.677 9  23031970.791
 94  3 22 19 57 59.9980000  0  8  2 31 16 18 19 27 28 29
  22331453.912   -10619344.365 6  -8147125.997 9  22331458.647
  21514853.529    -8464163.116 7  -6538982.289 9  21514856.541
  23768828.654    -1064523.742 5   -769168.569 9  23768833.506
  20810288.709     2400100.641 7   1869386.981 9  20810291.592
  20312043.131    -6041943.398 8  -4691293.915 9  20312045.744
  20738956.162   -13606825.318 7 -10542534.613 9  20738958.635
  23700362.670     1598125.186 5   1253497.517 9  23700367.217
  23047736.436    10890764.750 5   8431976.390 9  23047743.318
 94  3 22 19 58 29.9980000  0  8  2 31 16 18 19 27 28 29
  22315273.639   -10704371.132 6  -8213380.555 9  22315278.525
  21515110.170    -8462813.208 7  -6537930.411 9  21515113.018
  23761511.881    -1102973.013 5   -799129.033 9  23761516.580
  20820303.982     2452730.048 7   1910396.848 9  20820307.076
  20308342.498    -6061390.294 7  -4706447.345 9  20308345.123
  20726397.670   -13672819.943 7 -10593958.965 9  20726400.154
  23710039.068     1648971.574 5   1293118.039 9  23710043.275
  23063554.709    10973890.327 5   8496749.353 9  23063561.377
 94  3 22 19 58 59.9980000  0  8  2 31 16 18 19 27 28 29
  22299139.600   -10789156.029 6  -8279446.646 9  22299144.486
  21515475.842    -8460891.398 7  -6536432.892 9  21515478.818
  23754288.740    -1140933.555 5   -828708.673 9  23754293.451
  20830398.248     2505775.484 8   1951730.890 9  20830401.178
  20304680.318    -6080633.816 7  -4721442.297 9  20304683.119
  20713865.021   -13738678.824 7 -10645277.535 9  20713867.447
  23719789.600     1700212.479 5   1333045.947 9  23719793.736
  23079415.584    11057239.002 5   8561696.166 9  23079422.807
 94  3 22 19 59 29.9980000  0  8  2 31 16 18 19 27 28 29
  22283050.912   -10873704.800 6  -8345328.737 9  22283055.623
  21515951.467    -8458391.756 7  -6534485.119 9  21515954.432
  23747161.514    -1178387.845 5   -857893.845 9  23747166.049
  20840574.045     2559248.344 8   1993398.002 9  20840576.916
  20301059.818    -6099660.640 8  -4736268.401 9  20301062.443
  20701361.842   -13804384.144 7 -10696476.457 9  20701364.197
  23729615.982     1751854.263 5   1373286.254 9  23729621.865
  23095315.865    11140794.427 5   8626804.091 9  23095323.264
 94  3 22 19 59 59.9980000  0  8  2 31 16 18 19 27 28 29
  22267004.193   -10958027.520 6  -8411034.690 9  22267009.033
  21516537.482    -8455312.371 7  -6532085.594 9  21516540.740
  23740131.279    -1215330.179 5   -886680.083 9  23740137.174
  20850828.131     2613133.445 8   2035386.332 9  20850830.897
  20297482.561    -6118460.002 8  -4750917.260 9  20297484.893
  20688889.178   -13869929.316 8 -10747550.585 9  20688891.533
  23739521.982     1803909.891 5   1413849.039 9  23739527.455
  23111254.311    11224548.003 5   8692066.395 9  23111261.791
 94  3 22 20  0 29.9980000  0  8  2 31 16 18 19 27 28 29
  22251002.334   -11042119.194 6  -8476560.596 9  22251006.881
  21517237.873    -8451631.626 7  -6529217.481 9  21517240.885
  23733197.943    -1251764.801 5   -915070.697 9  23733202.701
  20861157.162     2667412.554 8   2077681.682 9  20861159.787
  20293949.537    -6137026.132 8  -4765384.380 9  20293951.799
  20676449.811   -13935297.996 7 -10798487.194 9  20676452.014
  23749507.232     1856382.979 5   1454737.130 9  23749512.248
  23127225.428    11308478.581 5   8757466.631 9  23127231.979
 94  3 22 20  0 59.9980000  0  8  2 31 16 18 19 27 28 29
  22235045.264   -11125973.739 6  -8541901.734 9  22235049.986
  21518055.740    -8447333.929 7  -6525868.629 9  21518058.799
  23726360.451    -1287694.564 5   -943067.944 9  23726365.033
  20871563.342     2722097.835 8   2120293.534 9  20871566.096
  20290461.717    -6155355.097 8  -4779666.694 9  20290464.119
  20664048.670   -14000467.553 7 -10849268.633 9  20664051.002
  23759570.772     1909265.667 5   1495944.399 9  23759577.123
  23143227.365    11392569.864 5   8822992.099 9  23143234.283
 94  3 22 20  1 29.9980000  0  8  2 31 16 18 19 27 28 29
  22219134.740   -11209582.971 6  -8607051.713 9  22219139.404
  21518989.373    -8442428.835 7  -6522046.479 9  21518992.467
  23719617.475    -1323131.073 5   -970680.808 9  23719622.654
  20882046.607     2777187.488 8   2163220.475 9  20882049.584
  20287013.717    -6173473.805 8  -4793785.177 9  20287016.178
  20651682.686   -14065449.192 7 -10899903.652 9  20651684.912
  23769710.240     1962550.472 5   1537464.998 9  23769714.893
  23159258.264    11476813.446 5   8888636.231 9  23159264.522
 94  3 22 20  1 59.9980000  0  8  2 31 16 18 19 27 28 29
  22203273.022   -11292938.938 6  -8672004.338 9  22203277.568
  21520035.787    -8436928.312 7  -6517760.362 9  21520038.963
  23712967.123    -1358080.598 5   -997914.206 9  23712971.893
  20892603.029     2832661.646 8   2206447.032 9  20892605.982
  20283602.857    -6191398.594 8  -4807752.548 9  20283605.482
  20639352.037   -14130247.474 7 -10950395.788 9  20639354.252
  23779925.631     2016232.591 5   1579295.188 9  23779930.260
  23175320.334    11561214.296 5   8954402.901 9  23175326.029
 94  3 22 20  2 29.9980000  0  7  2 31 16 18 19 27 29
  22187462.146   -11376025.482 6  -8736747.033 9  22187466.939
  21521196.225    -8430830.687 7  -6513008.969 9  21521199.201
  23706411.326    -1392532.794 5  -1024760.089 9  23706416.354
  20903233.107     2888523.541 7   2249975.723 9  20903236.131
  20280228.748    -6209128.306 8  -4821567.914 9  20280231.514
  20627056.521   -14194859.796 7 -11000743.036 9  20627058.678
  23191412.990    11645782.164 5   9020299.727 9  23191418.885
 94  3 22 20  2 59.9980000  0  7  2 31 16 18 19 27 29
  22171700.272   -11458853.231 6  -8801288.067 9  22171705.193
  21522463.967    -8424169.003 7  -6507818.046 9  21522466.990
  23699951.959    -1426473.761 5  -1051207.615 9  23699957.502
  20913939.615     2944786.422 7   2293816.865 9  20913942.838
  20276893.342    -6226656.214 8  -4835226.030 9  20276896.236
  20614794.443   -14259298.499 8 -11050954.987 9  20614796.447
  23207538.600    11730525.644 5   9086333.405 9  23207545.256
 94  3 22 20  3 29.9980000  0  7  2 31 16 18 19 27 29
  22155990.303   -11541408.735 6  -8865616.958 9  22155995.061
  21523838.615    -8416943.871 7  -6502188.071 9  21523841.416
  23693592.631    -1459892.488 5  -1077248.193 9  23693597.881
  20924722.357     3001448.814 7   2337969.317 9  20924725.580
  20273596.936    -6243980.390 8  -4848725.394 9  20273599.584
  20602563.264   -14323573.647 8 -11101039.498 9  20602565.408
  23223702.115    11815460.624 5   9152516.289 9  23223708.643
 94  3 22 20  3 59.9980000  0  7  2 31 16 18 19 27 29
  22140333.459   -11623686.563 6  -8929729.479 9  22140338.147
  21525326.756    -8409123.626 7  -6496094.373 9  21525329.850
  23687335.256    -1492776.609 5  -1102872.192 9  23687339.662
  20935581.490     3058514.554 7   2382436.065 9  20935584.736
  20270342.662    -6261081.349 8  -4862050.820 9  20270345.111
  20590363.139   -14387685.654 8 -11150996.885 9  20590365.272
  23239904.646    11900608.628 5   9218865.149 9  23239912.396
 94  3 22 20  4 29.9980000  0  7  2 31 16 18 19 27 29
  22124727.045   -11705696.988 6  -8993633.633 9  22124731.662
  21526928.381    -8400706.500 7  -6489535.565 9  21526931.709
  23681176.029    -1525141.093 5  -1128091.292 9  23681181.256
  20946520.264     3115998.983 7   2427229.063 9  20946523.721
  20267131.514    -6277957.009 8  -4875200.692 9  20267133.799
  20578191.732   -14451648.450 8 -11200838.016 9  20578193.701
  23256147.428    11985960.917 5   9285373.201 9  23256153.404
 94  3 22 20  4 59.9980000  0  7  2 31 16 18 19 27 29
  22109171.350   -11787444.043 7  -9057332.563 9  22109175.873
  21528642.396    -8391699.108 7  -6482516.823 9  21528645.748
  23675113.842    -1557003.523 5  -1152919.166 9  23675118.752
  20957541.521     3173915.381 7   2472358.661 9  20957545.166
  20263961.670    -6294614.196 8  -4888180.315 9  20263963.920
  20566048.084   -14515463.123 8 -11250563.719 9  20566050.053
  23272427.967    12071514.618 5   9352038.195 9  23272434.658
 94  3 22 20  5 29.9980000  0  7  2 31 16 18 19 27 29
  22093663.107   -11868939.578 6  -9120835.500 9  22093667.701
  21530471.725    -8382087.175 7  -6475027.007 9  21530475.029
  23669142.732    -1588378.434 5  -1177367.160 9  23669147.936
  20968639.709     3232236.039 7   2517803.265 9  20968643.307
  20260831.881    -6311061.658 8  -4900996.523 9  20260834.307
  20553931.412   -14579135.899 8 -11300178.857 9  20553933.486
  23288744.717    12157258.510 5   9418851.370 9  23288751.635
 94  3 22 20  5 59.9980000  0  7  2 31 16 18 19 27 29
  22078200.553   -11950194.721 6  -9184151.122 9  22078205.182
  21532413.490    -8371881.803 7  -6467074.763 9  21532416.807
  23663267.545    -1619253.736 5  -1201425.872 9  23663272.525
  20979812.889     3290951.727 7   2563555.685 9  20979816.439
  20257743.092    -6327291.554 7  -4913643.197 9  20257745.775
  20541842.451   -14642662.611 8 -11349680.179 9  20541844.584
  23305095.732    12243179.014 5   9485802.178 9  23305102.482
 94  3 22 20  6 29.9980000  0  7  2 31 16 18 19 27 29
  22062782.600   -12031216.728 6  -9247285.079 9  22062787.393
  21534461.412    -8361120.707 7  -6458689.485 9  21534464.822
  23657487.631    -1649627.247 5  -1225093.576 9  23657492.295
  20991057.740     3350043.888 7   2609601.458 9  20991061.092
  20254694.404    -6343312.983 8  -4926127.427 9  20254697.018
  20529783.678   -14706032.381 8 -11399059.212 9  20529785.600
  23321474.436    12329248.678 5   9552869.198 9  23321482.033
 94  3 22 20  6 59.9980000  0  7  2 31 16 18 19 27 29
  22047412.225   -12111987.029 6  -9310222.902 9  22047416.994
  21536617.209    -8349792.545 7  -6449862.338 9  21536620.420
  23651808.975    -1679471.769 5  -1248349.073 9  23651814.729
  21002371.123     3409495.962 7   2655927.684 9  21002374.334
  20251686.248    -6359120.931 8  -4938445.306 9  20251688.908
  20517759.686   -14769220.798 8 -11448296.919 9  20517761.373
  23337881.256    12415468.077 5   9620052.906 9  23337888.807
 94  3 22 20  7 29.9980000  0  7  2 31 16 18 19 27 29
  22032089.029   -12192512.389 7  -9372969.862 9  22032093.670
  21538883.006    -8337885.668 7  -6440584.240 9  21538886.463
  23646234.717    -1708762.100 5  -1271172.722 9  23646240.482
  21013750.279     3469293.055 7   2702522.757 9  21013753.549
  20248719.553    -6374712.074 8  -4950594.246 9  20248722.295
  20505770.686   -14832221.665 8 -11497388.493 9  20505772.643
  23354315.217    12501829.358 5   9687347.167 9  23354322.627
 94  3 22 20  7 59.9980000  0  7  2 31 16 18 19 27 29
  22016814.123   -12272783.026 7  -9435518.341 9  22016818.951
  21541259.201    -8325397.839 7  -6430853.459 9  21541262.553
  23640766.467    -1737496.657 5  -1293563.310 9  23640772.408
  21025201.154     3529465.920 7   2749410.638 9  21025204.471
  20245795.357    -6390078.921 8  -4962568.415 9  20245797.924
  20493820.529   -14895018.427 8 -11546321.025 9  20493822.486
  23370778.014    12588342.698 5   9754759.913 9  23370783.885
 94  3 22 20  8 29.9980000  0  7  2 31 16 18 19 27 29
  22001586.693   -12352803.533 7  -9497871.914 9  22001590.936
  21543748.131    -8312317.873 7  -6420661.266 9  21543751.506
  23635397.693    -1765709.333 5  -1315547.218 9  23635403.869
  21036724.725     3590023.632 7   2796598.401 9  21036727.900
  20242910.928    -6405236.582 8  -4974379.581 9  20242913.424
  20481908.373   -14957619.323 8 -11595100.935 9  20481910.471
  23387271.904    12675014.120 5   9822295.828 8  23387278.951
 94  3 22 20  8 59.9980000  0  7  2 31 16 18 19 27 29
  21986404.232   -12432585.168 7  -9560039.352 9  21986408.896
  21546352.717    -8298631.461 7  -6409996.519 9  21546356.022
  23630125.029    -1793417.641 5  -1337138.147 9  23630130.889
  21048325.490     3650983.651 7   2844099.648 9  21048328.678
  20240067.209    -6420179.777 8  -4986023.627 9  20240069.635
  20470031.248   -15020033.164 8 -11643735.084 9  20470033.404
  23403796.045    12761851.190 5   9889960.830 9  23403803.994
 94  3 22 20  9 29.9980000  0  7  2 31 16 18 19 27 29
  21971266.803   -12512132.649 7  -9622024.328 9  21971271.479
  21549069.529    -8284353.796 7  -6398871.050 9  21549072.822
  23624945.717    -1820636.360 5  -1358347.598 9  23624951.436
  21060005.717     3712364.848 7   2891929.088 9  21060008.869
  20237265.670    -6434902.168 8  -4997495.618 9  20237268.107
  20458189.998   -15082259.115 8 -11692222.823 9  20458192.225
  23420356.061    12848874.085 5   9957770.638 9  23420361.498
 94  3 22 20  9 59.9980000  0  7  2 31 16 18 19 27 29
  21956175.639   -12591438.461 7  -9683820.993 9  21956179.986
  21551894.475    -8269509.381 7  -6387303.964 9  21551897.873
  23619854.053    -1847393.048 5  -1379196.982 9  23619859.994
  21071764.889     3774161.274 7   2940082.085 9  21071767.994
  20234504.420    -6449412.987 8  -5008802.748 9  20234507.033
  20446381.607   -15144313.673 8 -11740577.010 9  20446383.623
  23436950.701    12936079.278 5  10025722.473 9  23436957.572
 94  3 22 20 10 29.9980000  0  7  2 31 16 18 19 27 29
  21941132.592   -12670490.906 7  -9745420.226 9  21941137.057
  21554826.920    -8254099.726 7  -6375296.430 9  21554830.178
  23614852.904    -1873673.834 5  -1399675.542 9  23614858.096
  21083599.467     3836349.433 7   2988540.323 9  21083602.678
  20231784.959    -6463702.717 7  -5019937.601 9  20231787.572
  20434607.232   -15206187.854 8 -11788790.643 9  20434609.424
  23453580.256    13023467.549 5  10093817.005 9  23453587.631
 94  3 22 20 10 59.9980000  0  7  2 31 16 18 19 27 29
  21926140.725   -12749274.146 7  -9806809.692 9  21926145.014
  21557867.311    -8238121.014 7  -6362845.475 9  21557870.709
  23609950.295    -1899439.861 5  -1419752.994 9  23609956.787
  21095507.014     3898923.646 7   3037299.380 9  21095510.295
  20229112.186    -6477748.010 8  -5030881.979 9  20229114.881
  20422869.201   -15267871.851 8 -11836856.075 9  20422871.229
  23470244.357    13111035.770 5  10162051.754 9  23470252.436
 94  3 22 20 11 29.9980000  0  7  2 31 16 18 19 27 29
  21911203.771   -12827766.730 7  -9867972.674 9  21911208.084
  21561019.295    -8221559.627 7  -6349940.488 9  21561022.518
  23605149.084    -1924669.409 5  -1439412.426 9  23605154.299
  21107485.006     3961870.236 7   3086348.601 9  21107488.322
  20226484.459    -6491556.484 7  -5041641.823 9  20226487.166
  20411166.045   -15329371.963 7 -11884778.229 9  20411168.189
  23486943.256    13198781.388 5  10230424.700 9  23486951.217
 94  3 22 20 11 59.9980000  0  7  2 31 16 18 19 27 29
  21896321.811   -12905972.851 7  -9928912.432 9  21896326.240
  21564283.928    -8204403.207 7  -6336571.836 9  21564287.033
  23600450.584    -1949360.505 5  -1458652.234 9  23600456.912
  21119529.061     4025161.322 7   3135666.258 9  21119532.553
  20223901.826    -6505129.708 8  -5052218.348 9  20223904.475
  20399498.334   -15390684.407 7 -11932554.142 9  20399500.678
  23503670.029    13286683.648 5  10298919.725 9  23503678.025
 94  3 22 20 12 29.9980000  0  7  2 31 16 18 19 27 29
  21881491.834   -12983903.322 7  -9989637.406 9  21881496.182
  21567662.928    -8186645.428 7  -6322734.594 9  21567666.174
  23595855.982    -1973505.351 5  -1477466.428 9  23595861.971
  21131635.732     4088783.194 7   3185241.673 9  21131639.225
  20221362.896    -6518471.180 8  -5062614.296 9  20221365.428
  20387868.178   -15451801.626 7 -11980177.929 9  20387870.592
  23520424.756    13374733.471 5  10367529.743 9  23520433.139
 94  3 22 20 12 59.9980000  0  7  2 31 16 18 19 27 29
  21866713.264   -13061564.891 7 -10050152.840 9  21866717.471
  21571155.615    -8168291.511 7  -6308432.839 9  21571158.697
  23591364.131    -1997110.536 5  -1495860.107 9  23591369.732
  21143807.631     4152746.102 7   3235082.827 9  21143811.299
  20218866.850    -6531588.967 8  -5072835.943 9  20218869.287
  20376274.568   -15512726.604 7 -12027651.918 9  20376276.854
  23537207.209    13462921.492 5  10436247.405 9  23537215.756
 94  3 22 20 13 29.9980000  0  7  2 31 16 18 19 27 29
  21851980.061   -13138988.127 7 -10110482.566 9  21851984.443
  21574755.225    -8149375.736 7  -6293693.264 9  21574758.283
  23586964.959    -2020225.297 5  -1513871.624 9  23586971.486
  21156041.193     4217033.288 7   3285176.669 9  21156044.779
  20216408.373    -6544506.449 8  -5082901.506 9  20216410.998
  20364719.240   -15573450.642 7 -12074969.334 9  20364721.467
  23554011.350    13551232.779 5  10505061.147 9  23554019.533
 94  3 22 20 13 59.9980000  0  7  2 31 16 18 19 27 29
  21837291.975   -13216173.910 7 -10170627.259 9  21837296.264
  21578459.248    -8129910.616 7  -6278525.639 9  21578462.412
  23582657.818    -2042859.948 5  -1531509.042 9  23582664.510
  21168340.131     4281663.926 7   3335538.135 9  21168343.693
  20213990.779    -6557210.224 7  -5092800.543 9  20213993.627
  20353206.701   -15633949.615 7 -12122111.368 9  20353208.916
  23570840.787    13639668.054 5  10573971.490 9  23570848.549
 94  3 22 20 14 29.9980000  0  7  2 31 16 18 19 27 29
  21822647.365   -13293132.571 7 -10230594.980 9  21822651.455
  21582263.498    -8109921.152 7  -6262949.438 9  21582266.521
  23578441.217    -2065020.901 5  -1548777.361 9  23578446.900
  21180705.967     4346646.264 7   3386173.649 9  21180709.658
  20211613.193    -6569704.402 7  -5102536.256 9  20211615.994
  20341732.123   -15694248.691 7 -12169097.635 9  20341734.326
  23587690.920    13728216.562 5  10642970.071 9  23587699.162
 94  3 22 20 14 59.9980000  0  7  2 31 16 18 19 27 29
  21808046.428   -13369860.099 7 -10290382.589 9  21808050.646
  21586168.412    -8089400.049 7  -6246958.973 9  21586171.389
  23574312.967    -2086712.322 5  -1565679.807 9  23574318.756
  21193141.576     4411996.514 7   3437095.849 9  21193145.174
  20209278.326    -6581975.314 7  -5112098.003 9  20209281.162
  20330295.389   -15754349.522 7 -12215929.428 9  20330297.674
  23604563.147    13816881.201 5  10712059.144 9  23604572.209
 94  3 22 20 15 29.9980000  0  7  2 31 16 18 19 27 29
  21793493.998   -13446333.200 7 -10349971.949 9  21793498.311
  21590178.412    -8068325.995 7  -6230537.638 9  21590181.283
  23570277.357    -2107923.661 5  -1582208.122 9  23570282.982
  21205647.818     4477716.020 7   3488305.780 9  21205651.486
  20206988.178    -6594010.677 7  -5121476.194 9  20206990.885
  20318897.115   -15814248.113 7 -12262603.635 9  20318899.354
  23621460.529    13905670.427 5  10781245.285 9  23621468.104
 94  3 22 20 15 59.9980000  0  6  2 31 16 18 19 27
  21778994.709   -13522527.545 7 -10409344.099 9  21778998.939
  21594298.514    -8046674.541 7  -6213666.383 9  21594301.232
  23566339.076    -2128617.694 5  -1598333.410 9  23566344.795
  21218224.678     4543810.536 7   3539807.924 9  21218228.357
  20204744.920    -6605799.895 8  -5130662.595 9  20204747.369
  20307532.904   -15873966.453 7 -12309137.381 9  20307535.213
 94  3 22 20 16 29.9980000  0  6  2 31 16 18 19 27
  21764548.107   -13598442.680 7 -10468498.681 9  21764552.631
  21598530.186    -8024436.053 7  -6196337.709 9  21598533.256
  23562500.490    -2148786.996 5  -1614049.769 9  23562507.947
  21230873.654     4610277.194 7   3591600.051 9  21230877.205
  20202548.186    -6617344.428 8  -5139658.334 9  20202550.611
  20296200.998   -15933516.341 7 -12355539.863 9  20296203.271
 94  3 22 20 16 59.9980000  0  6  2 31 16 18 19 27
  21750158.701   -13674061.313 7 -10527422.222 9  21750162.979
  21602874.975    -8001603.307 7  -6178545.968 9  21602878.350
  23558761.170    -2168440.901 5  -1629364.548 9  23558766.443
  21243592.998     4677118.124 7   3643683.818 9  21243596.736
  20200394.654    -6628661.529 8  -5148476.853 9  20200397.021
  20284905.170   -15992877.443 8 -12401795.249 9  20284907.408
 94  3 22 20 17 29.9980000  0  6  2 31 16 18 19 27
  21735824.318   -13749386.661 7 -10586117.234 9  21735828.842
  21607329.514    -7978196.765 7  -6160307.116 9  21607332.701
  23555119.256    -2187580.574 5  -1644278.592 9  23555124.717
  21256382.451     4744328.017 7   3696055.080 9  21256386.025
  20198281.686    -6639765.611 8  -5157129.385 9  20198284.064
  20273645.850   -16052046.585 8 -12447901.056 9  20273648.064
 94  3 22 20 17 59.9980000  0  6  2 31 16 18 19 27
  21721541.639   -13824442.954 7 -10644602.585 9  21721546.197
  21611888.897    -7954238.312 7  -6141638.199 9  21611892.084
  23551574.842    -2206206.542 5  -1658792.366 9  23551581.736
  21269244.529     4811918.072 7   3748722.581 9  21269248.127
  20196209.865    -6650651.488 8  -5165611.887 9  20196212.350
  20262422.131   -16111025.966 8 -12493858.984 9  20262424.217
 94  3 22 20 18 29.9980000  0  6  2 31 16 18 19 27
  21707308.146   -13899241.278 7 -10702886.922 9  21707312.658
  21616549.725    -7929745.301 7  -6122552.749 9  21616552.725
  23548125.006    -2224334.575 5  -1672918.169 8  23548130.760
  21282178.053     4879884.729 7   3801683.531 9  21282181.861
  20194180.365    -6661316.436 8  -5173922.234 9  20194182.850
  20251237.256   -16169802.189 8 -12539658.623 9  20251239.365
 94  3 22 20 18 59.9980000  0  6  2 31 16 18 19 27
  21693122.436   -13973786.658 7 -10760974.163 9  21693126.713
  21621313.045    -7904714.156 7  -6103047.976 9  21621315.916
  23544769.334    -2241965.673 5  -1686656.727 8  23544775.615
  21295179.021     4948202.620 7   3854918.168 9  21295182.561
  20192196.389    -6671742.586 8  -5182046.510 9  20192198.979
  20240091.889   -16228372.619 8 -12585297.894 9  20240093.975
 94  3 22 20 19 29.9980000  0  6  2 31 16 18 19 27
  21678979.240   -14048109.383 7 -10818887.907 9  21678983.482
  21626176.561    -7879155.159 7  -6083131.875 9  21626179.537
  23541509.748    -2259096.547 5  -1700005.505 9  23541515.373
  21308241.631     5016848.175 7   3908408.132 9  21308245.334
  20190260.561    -6681914.496 8  -5189972.674 9  20190263.186
  20228980.748   -16286761.954 8 -12630796.059 9  20228982.682
 94  3 22 20 19 59.9980000  0  6  2 31 16 18 19 27
  21664881.592   -14122195.031 7 -10876616.912 9  21664885.881
  21631145.365    -7853042.689 7  -6062784.498 9  21631148.541
  23538346.545    -2275720.196 5  -1712959.056 9  23538351.982
  21321365.412     5085813.015 7   3962146.876 9  21321369.092
  20188377.584    -6691810.858 8  -5197684.121 9  20188380.279
  20217904.873   -16344966.115 8 -12676149.936 9  20217906.865
 94  3 22 20 20 29.9980000  0  6  2 31 16 18 19 27
  21650836.350   -14196002.099 7 -10934128.848 9  21650840.475
  21636226.959    -7826338.936 7  -6041976.377 9  21636229.854
  23535280.514    -2291834.975 5  -1725516.060 9  23535286.748
  21334548.568     5155091.604 7   4016130.103 9  21334552.365
  20186548.264    -6701423.745 8  -5205174.682 9  20186550.959
  20206867.787   -16402966.037 8 -12721344.673 9  20206869.662
 94  3 22 20 20 59.9980000  0  6  2 31 16 18 19 27
  21636844.779   -14269528.882 7 -10991422.378 9  21636848.869
  21641419.357    -7799052.536 7  -6020714.246 9  21641422.533
  23532309.420    -2307447.768 5  -1737681.904 9  23532315.900
  21347789.920     5224674.876 7   4070350.744 9  21347793.658
  20184769.951    -6710768.321 8  -5212456.174 9  20184772.623
  20195868.115   -16460769.963 8 -12766386.688 9  20195869.990
 94  3 22 20 21 29.9980000  0  6  2 31 16 18 19 27
  21622908.943   -14342763.352 7 -11048488.138 9  21622912.740
  21646721.670    -7771191.067 7  -5999004.003 9  21646724.705
  23529433.389    -2322558.428 5  -1749456.488 9  23529439.904
  21361094.811     5294594.046 7   4124833.123 9  21361098.561
  20183040.920    -6719854.435 8  -5219536.263 9  20183043.510
  20184909.764   -16518356.514 8 -12811259.307 9  20184911.721
 94  3 22 20 21 59.9980000  0  6  2 31 16 18 19 27
  21609031.295   -14415688.051 7 -11105312.517 9  21609035.408
  21652134.107    -7742748.686 7  -5976841.100 9  21652136.967
  23526653.248    -2337169.700 5  -1760841.970 9  23526660.154
  21374466.850     5364863.912 7   4179588.767 9  21374470.646
  20181360.053    -6728688.128 8  -5226419.669 9  20181362.584
  20173998.365   -16575695.018 8 -12855938.653 9  20174000.193
 94  3 22 20 22 29.9980000  0  6  2 31 16 18 19 27
  21595209.209   -14488324.176 7 -11161912.038 9  21595213.146
  21657649.857    -7713761.764 7  -5954253.877 9  21657652.787
  23523963.842    -2351303.071 5  -1771855.021 9  23523970.287
  21387903.701     5435471.910 7   4234607.899 9  21387907.568
  20179721.553    -6737298.112 8  -5233128.757 9  20179723.896
  20163133.334   -16632792.229 8 -12900429.974 9  20163135.268
 94  3 22 20 22 59.9980000  0  6  2 31 16 18 19 27
  21581435.092   -14560705.074 7 -11218312.677 9  21581439.170
  21663265.928    -7684249.735 7  -5931257.484 9  21663268.834
  23521366.631    -2364949.333 5  -1782488.538 9  23521372.467
  21401406.334     5506430.392 7   4289900.128 9  21401410.272
  20178125.498    -6745687.005 8  -5239665.567 9  20178127.748
  20152315.764   -16689637.447 8 -12944724.941 9  20152317.814
 94  3 22 20 23 29.9980000  0  6  2 31 16 18 19 27
  21567705.959   -14632851.575 7 -11274530.675 9  21567709.990
  21668983.076    -7654205.450 7  -5907846.346 9  21668986.229
  23518859.740    -2378123.843 5  -1792754.445 9  23518865.412
  21414973.826     5577726.573 7   4345455.501 9  21414977.693
  20176569.975    -6753861.813 8  -5246035.549 9  20176572.342
  20141545.857   -16746235.005 8 -12988826.922 9  20141547.756
 94  3 22 20 23 59.9980000  0  6  2 31 16 18 19 27
  21554020.592   -14704770.689 7 -11330571.489 9  21554024.682
  21674802.115    -7623627.241 7  -5884019.168 9  21674805.045
  23516443.975    -2390819.975 5  -1802647.587 9  23516450.021
  21428601.568     5649340.703 7   4401258.623 9  21428605.518
  20175055.764    -6761817.335 8  -5252234.670 9  20175058.189
  20130820.537   -16802596.346 8 -13032744.844 9  20130822.377
 94  3 22 20 24 29.9980000  0  6  2 31 16 18 19 27
  21540378.232   -14776460.119 7 -11386433.328 9  21540382.252
  21680722.803    -7592511.784 7  -5859773.356 9  21680725.674
  23514121.100    -2403025.937 5  -1812158.797 9  23514126.994
  21442290.475     5721276.271 7   4457312.218 9  21442294.295
  20173586.248    -6769540.255 8  -5258252.540 9  20173588.744
  20120137.740   -16858734.397 8 -13076488.771 9  20120139.557
 94  3 22 20 24 59.9980000  0  6  2 31 16 18 19 27
  21526778.115   -14847930.665 7 -11442124.612 9  21526782.170
  21686748.498    -7560848.711 7  -5835100.834 9  21686751.275
  23511893.045    -2414737.719 5  -1821284.874 9  23511899.916
  21456040.896     5793534.553 7   4513617.280 9  21456044.811
  20172162.881    -6777019.051 8  -5264080.178 9  20172165.564
  20109495.357   -16914661.617 8 -13120068.407 9  20109497.186
 94  3 22 20 25 29.9980000  0  6  2 31 16 18 19 27
  21513223.967   -14919157.874 7 -11497626.280 9  21513227.834
  21692876.967    -7528643.269 7  -5810005.691 9  21692879.838
  23509758.209    -2425957.602 5  -1830027.714 9  23509764.924
  21469848.670     5866095.585 7   4570158.252 9  21469852.479
  20170788.100    -6784243.561 8  -5269709.672 9  20170790.912
  20098889.248   -16970396.104 8 -13163497.863 9  20098891.205
 94  3 22 20 25 59.9980000  0  6  2 31 16 18 19 27
  21499720.295   -14990119.111 7 -11552920.701 9  21499724.396
  21699107.295    -7495901.413 7  -5784492.565 9  21699110.225
  23507719.701    -2436670.965 5  -1838375.856 9  23507725.924
  21483717.600     5938973.829 7   4626946.399 9  21483721.537
  20169464.146    -6791201.088 8  -5275131.124 9  20169466.971
  20088321.029   -17025932.879 8 -13206773.247 9  20088322.939
 94  3 22 20 26 29.9980000  0  6  2 31 16 18 19 27
  21486269.959   -15060799.488 7 -11607996.270 9  21486273.873
  21705439.725    -7462626.211 7  -5758563.848 9  21705442.725
  23505776.889    -2446881.293 5  -1846332.014 9  23505782.174
  21497647.811     6012179.865 7   4683989.968 9  21497651.900
  20168191.295    -6797890.915 8  -5280343.979 9  20168194.107
  20077792.350   -17081261.131 8 -13249886.150 9  20077794.225
 94  3 22 20 26 59.9980000  0  6  2 31 16 18 19 27
  21472872.881   -15131201.062 7 -11662854.582 9  21472876.854
  21711871.943    -7428823.093 7  -5732223.777 9  21711874.850
  23503930.412    -2456585.102 5  -1853893.478 9  23503936.096
  21511638.600     6085697.346 7   4741276.219 9  21511642.314
  20166966.600    -6804326.830 8  -5285358.983 9  20166969.377
  20067303.006   -17136382.893 8 -13292838.153 9  20067304.893
 94  3 22 20 27 29.9980000  0  6  2 31 16 18 19 27
  21459530.537   -15201316.016 7 -11717489.558 9  21459534.709
  21718401.592    -7394509.175 7  -5705485.677 9  21718404.674
  23502180.482    -2465775.321 5  -1861054.727 9  23502188.197
  21525685.936     6159518.367 7   4798799.006 9  21525689.732
  20165787.662    -6810521.581 8  -5290186.067 9  20165790.334
  20056854.826   -17191289.169 8 -13335622.251 9  20056856.818
 94  3 22 20 27 59.9980000  0  6  2 31 16 18 19 27
  21446241.803   -15271147.555 7 -11771903.690 9  21446245.916
  21725030.498    -7359674.885 7  -5678342.092 9  21725033.709
  23500531.912    -2474441.955 5  -1867807.992 9  23500538.334
  21539793.514     6233656.647 7   4856569.002 9  21539797.346
  20164653.162    -6816484.200 8  -5294832.270 9  20164655.857
  20046450.662   -17245962.436 7 -13378224.783 9  20046452.772
 94  3 22 20 28 29.9980000  0  6  2 31 16 18 19 27
  21433003.936   -15340714.239 7 -11826111.448 9  21433008.119
  21731757.311    -7324324.289 7  -5650796.204 9  21731760.334
  23498982.162    -2482588.546 5  -1874156.011 8  23498988.443
  21553959.178     6308095.184 7   4914572.970 9  21553963.021
  20163562.014    -6822218.092 8  -5299300.243 9  20163564.709
  20036091.295   -17300400.686 7 -13420644.178 9  20036093.334
 94  3 22 20 28 59.9980000  0  6  2 31 16 18 19 27
  21419814.482   -15410025.569 7 -11880120.222 9  21419818.549
  21738583.584    -7288452.565 7  -5622844.227 9  21738586.830
  23497529.154    -2490218.974 5  -1880101.864 8  23497535.213
  21568181.889     6382834.801 7   4972811.542 9  21568185.943
  20162516.068    -6827714.959 8  -5303583.522 9  20162518.717
  20025777.037   -17354602.368 7 -13462879.234 9  20025779.100
 94  3 22 20 29 29.9980000  0  6  2 31 16 18 19 27
  21406676.576   -15479066.585 7 -11933918.357 9  21406680.525
  21745509.545    -7252056.683 7  -5594483.830 9  21745512.557
  23496172.201    -2497351.529 5  -1885659.760 9  23496177.791
  21582463.537     6457886.622 7   5031293.390 9  21582467.557
  20161520.404    -6832946.178 8  -5307659.798 9  20161522.971
  20015511.748   -17408546.885 7 -13504913.903 9  20015513.963
 94  3 22 20 29 59.9980000  0  6  2 31 16 18 19 27
  21393587.850   -15547846.467 7 -11987513.018 9  21393591.822
  21752535.623    -7215134.069 7  -5565712.979 9  21752538.975
  23494902.639    -2504022.561 5  -1890857.993 9  23494908.006
  21596805.006     6533252.411 7   5090019.887 9  21596809.049
  20160577.279    -6837901.541 8  -5311521.124 9  20160579.857
  20005294.561   -17462239.052 7 -13546751.941 9  20005296.623
 94  3 22 20 30 29.9980000  0  6  2 31 16 18 19 27
  21380549.709   -15616363.113 7 -12040902.559 9  21380553.635
  21759658.740    -7177701.877 7  -5536545.061 9  21759661.822
  23493715.920    -2510260.252 5  -1895718.597 8  23493722.025
  21611203.451     6608916.214 7   5148978.593 9  21611207.658
  20159687.514    -6842578.328 8  -5315165.379 9  20159690.209
  19995124.529   -17515681.917 7 -13588395.715 9  19995126.615
 94  3 22 20 30 59.9980000  0  6  2 31 16 18 19 27
  21367564.021   -15684603.167 7 -12094076.567 9  21367567.982
  21766879.982    -7139753.819 7  -5506975.168 9  21766883.135
  23492610.256    -2516070.241 5  -1900245.925 9  23492616.338
  21625658.256     6684875.860 7   5208167.832 9  21625662.428
  20158849.795    -6846979.879 8  -5318595.161 9  20158852.502
  19985001.857   -17568878.183 7 -13629847.344 9  19985003.838
 94  3 22 20 31 29.9980000  0  6  2 31 16 18 19 27
  21354629.545   -15752573.142 7 -12147040.131 9  21354633.447
  21774199.662    -7101290.589 7  -5477003.839 9  21774202.873
  23491584.670    -2521460.014 5  -1904445.751 9  23491591.705
  21640166.021     6761114.223 7   5267574.253 9  21640170.381
  20158062.639    -6851116.082 8  -5321818.173 9  20158065.393
  19974924.498   -17621834.429 7 -13671111.932 9  19974926.596
 94  3 22 20 31 59.9980000  0  6  2 31 16 18 19 27
  21341742.975   -15820292.696 7 -12199808.564 9  21341746.912
  21781618.061    -7062307.064 7  -5446627.079 9  21781621.283
  23490640.514    -2526419.635 5  -1908310.458 9  23490645.447
  21654724.475     6837617.992 7   5327187.472 9  21654728.588
  20157320.732    -6855015.432 8  -5324856.624 9  20157323.533
  19964891.037   -17674561.115 7 -13712197.648 9  19964893.217
 94  3 22 20 32 29.9980000  0  6  2 31 16 18 19 27
  21328904.646   -15887759.971 7 -12252380.413 9  21328908.467
  21789139.373    -7022784.200 7  -5415830.060 9  21789142.455
  23489786.686    -2530911.219 5  -1911810.452 9  23489793.639
  21669331.061     6914374.761 7   5386997.845 9  21669335.408
  20156623.303    -6858681.429 8  -5327713.242 9  20156626.022
  19954902.272   -17727051.517 7 -13753099.251 9  19954904.463
 94  3 22 20 32 59.9980000  0  6  2 31 16 18 19 27
  21316112.139   -15954983.359 7 -12304762.230 9  21316115.912
  21796765.436    -6982706.197 7  -5384600.459 9  21796768.377
  23489025.186    -2534912.825 5  -1914928.627 9  23489030.283
  21683987.451     6991397.355 7   5447015.348 9  21683991.740
  20155972.795    -6862099.095 8  -5330376.357 9  20155975.572
  19944958.326   -17779306.832 7 -13793817.661 9  19944960.447
 94  3 22 20 33 29.9980000  0  7  2 31 16 18 19  7 27
  21303365.873   -16021966.357 7 -12356956.719 9  21303369.611
  21804495.318    -6942086.454 7  -5352948.731 9  21804498.213
  23488355.584    -2538434.212 5  -1917672.592 9  23488361.689
  21698697.037     7068693.500 7   5507246.006 9  21698701.256
  20155369.818    -6865268.993 8  -5332846.406 9  20155372.525
  23591512.287      -21106.96215
  19935060.818   -17831319.354 7 -13834346.879 9  19935062.963
 94  3 22 20 33 59.9980000  0  7  2 31 16 18 19  7 27
  21290667.662   -16088694.339 7 -12408952.500 9  21290671.541
  21812324.959    -6900941.166 7  -5320887.474 9  21812327.748
  23487777.373    -2541465.076 5  -1920034.287 2  23487783.432
  21713459.662     7146272.479 7   5567697.057 9  21713463.822
  20154814.021    -6868190.187 8  -5335122.661 9  20154816.705
  23567416.795     -147732.203 5
  19925210.928   -17883081.147 8 -13874680.732 9  19925213.096
 94  3 22 20 34 29.9980000  0  7  2 31 16 18 19  7 27
  21278022.045   -16155146.767 7 -12460733.567 9  21278025.947
  21820248.357    -6859300.632 7  -5288440.314 9  21820251.475
  23487292.334    -2544016.125 5
  21728279.279     7224148.903 7   5628379.885 9  21728283.568
  20154308.725    -6870844.464 8  -5337190.927 9  20154311.326
  23543331.193     -274299.219 5    -62452.85319  23543340.525
  19915409.748   -17934586.911 8 -13914815.080 9  19915411.846
 94  3 22 20 34 59.9980000  0  7  2 31 16 18 19  7 27
  21265431.326   -16221312.417 7 -12512291.166 9  21265435.264
  21828261.959    -6817190.757 7  -5255627.434 9  21828264.936
  23486895.037    -2546109.975 5
  21743155.811     7302327.892 7   5689298.483 9  21743160.111
  20153852.889    -6873239.887 8  -5339057.491 9  20153855.678
  23519258.811     -400799.239 5   -161024.019 9  23519267.428
  19905657.357   -17985836.514 8 -13954749.815 9  19905659.490
 94  3 22 20 35 29.9980000  0  7  2 31 16 18 19  7 27
  21252894.022   -16287196.003 7 -12563628.981 9  21252898.158
  21836362.373    -6774622.682 7  -5222457.538 9  21836365.350
  23486582.818    -2547749.942 5      -266.80519  23486589.592
  21758088.670     7380798.489 7   5750444.302 9  21758092.994
  20153444.021    -6875387.957 8  -5340731.312 9  20153446.834
  23495198.975     -527235.604 5   -259545.585 9  23495207.861
  19895953.912   -18036827.627 8 -13994483.126 9  19895955.951
 94  3 22 20 35 59.9980000  0  7  2 31 16 18 19  7 27
  21240409.647   -16352799.038 7 -12614748.180 9  21240413.607
  21844552.975    -6731581.704 7  -5188919.135 9  21844555.986
  23486361.537    -2548911.140 5     -1171.703 9  23486368.396
  21773077.162     7459561.463 7   5811817.948 9  21773081.768
  20153085.014    -6877274.783 8  -5342201.567 9  20153087.744
  23471151.357     -653606.404 5   -358016.069 9  23471160.080
  19886297.936   -18087570.774 8 -14034023.224 9  19886299.822
